Observation data for Fort Chadbourne on 11/09/2019      Previous  Date       Current Mesonet Observations  Soil Data  Daily Summary Page  Observations in Plain Language
KCH1 090600Z 25001KT 05/05 A3033 RMK A01 T00450045  RH  100%=      5-min Rain = 0
KCH1 090601Z 25001KT 04/04 A3032 RMK A01 T00440044  RH  100%=      5-min Rain = 0
KCH1 090602Z 26001KT 04/04 A3032 RMK A01 T00440043  RH  100%=      5-min Rain = 0
KCH1 090603Z 26001KT 04/04 A3032 RMK A01 T00440043  RH  100%=      5-min Rain = 0
KCH1 090604Z 26001KT 04/04 A3032 RMK A01 T00430043  RH  100%=      5-min Rain = 0
KCH1 090605Z 27001KT 04/04 A3032 RMK A01 T00420041  RH  099%=      5-min Rain = 0
KCH1 090606Z 27001KT 04/04 A3032 RMK A01 T00420041  RH  099%=      5-min Rain = 0
KCH1 090607Z 27001KT 04/04 A3032 RMK A01 T00420041  RH  099%=      5-min Rain = 0
KCH1 090608Z 27001KT 04/04 A3032 RMK A01 T00420042  RH  100%=      5-min Rain = 0
KCH1 090609Z 28001KT 04/04 A3032 RMK A01 T00420042  RH  100%=      5-min Rain = 0
KCH1 090610Z 28001KT 04/04 A3032 RMK A01 T00420042  RH  100%=      5-min Rain = 0
KCH1 090611Z 28000KT 04/04 A3032 RMK A01 T00420041  RH  099%=      5-min Rain = 0
KCH1 090612Z 28001KT 04/04 A3032 RMK A01 T00410041  RH  099%=      5-min Rain = 0
KCH1 090613Z 28001KT 04/04 A3032 RMK A01 T00410040  RH  099%=      5-min Rain = 0
KCH1 090614Z 28002KT 04/04 A3032 RMK A01 T00410040  RH  100%=      5-min Rain = 0
KCH1 090615Z 28001KT 04/04 A3032 RMK A01 T00410040  RH  100%=      5-min Rain = 0
KCH1 090616Z 27001KT 04/04 A3032 RMK A01 T00410040  RH  100%=      5-min Rain = 0
KCH1 090617Z 27002KT 04/04 A3032 RMK A01 T00410040  RH  100%=      5-min Rain = 0
KCH1 090618Z 26002KT 04/04 A3032 RMK A01 T00400040  RH  100%=      5-min Rain = 0
KCH1 090619Z 26002KT 04/04 A3033 RMK A01 T00400040  RH  100%=      5-min Rain = 0
KCH1 090620Z 26002KT 04/04 A3033 RMK A01 T00410040  RH  100%=      5-min Rain = 0
KCH1 090621Z 26002KT 04/04 A3033 RMK A01 T00410041  RH  100%=      5-min Rain = 0
KCH1 090622Z 25002KT 04/04 A3033 RMK A01 T00420041  RH  100%=      5-min Rain = 0
KCH1 090623Z 25002KT 04/04 A3032 RMK A01 T00410041  RH  100%=      5-min Rain = 0
KCH1 090624Z 26002KT 04/04 A3032 RMK A01 T00410041  RH  100%=      5-min Rain = 0
KCH1 090625Z 25002KT 04/04 A3032 RMK A01 T00420042  RH  100%=      5-min Rain = 0
KCH1 090626Z 26002KT 04/04 A3032 RMK A01 T00430043  RH  100%=      5-min Rain = 0
KCH1 090627Z 27001KT 04/04 A3032 RMK A01 T00430043  RH  100%=      5-min Rain = 0
KCH1 090628Z 27002KT 04/04 A3032 RMK A01 T00430042  RH  100%=      5-min Rain = 0
KCH1 090629Z 28001KT 04/04 A3032 RMK A01 T00430043  RH  100%=      5-min Rain = 0
KCH1 090630Z 28001KT 04/04 A3032 RMK A01 T00430043  RH  100%=      5-min Rain = 0
KCH1 090631Z 29001KT 04/04 A3033 RMK A01 T00430043  RH  100%=      5-min Rain = 0
KCH1 090632Z 29001KT 04/04 A3033 RMK A01 T00420041  RH  100%=      5-min Rain = 0
KCH1 090633Z 29001KT 04/04 A3033 RMK A01 T00400039  RH  099%=      5-min Rain = 0
KCH1 090634Z 29000KT 04/04 A3032 RMK A01 T00370036  RH  099%=      5-min Rain = 0
KCH1 090635Z 00000KT 04/03 A3032 RMK A01 T00350033  RH  099%=      5-min Rain = 0
KCH1 090636Z 00000KT 03/03 A3032 RMK A01 T00330030  RH  098%=      5-min Rain = 0
KCH1 090637Z 00000KT 03/03 A3032 RMK A01 T00310029  RH  098%=      5-min Rain = 0
KCH1 090638Z 00000KT 03/03 A3032 RMK A01 T00300028  RH  098%=      5-min Rain = 0
KCH1 090639Z 00000KT 03/03 A3032 RMK A01 T00300028  RH  099%=      5-min Rain = 0
KCH1 090640Z 00000KT 03/03 A3032 RMK A01 T00290027  RH  099%=      5-min Rain = 0
KCH1 090641Z 00000KT 03/03 A3032 RMK A01 T00290027  RH  099%=      5-min Rain = 0
KCH1 090642Z 00000KT 03/03 A3032 RMK A01 T00290027  RH  099%=      5-min Rain = 0
KCH1 090643Z 00000KT 03/03 A3032 RMK A01 T00290028  RH  099%=      5-min Rain = 0
KCH1 090644Z 00000KT 03/03 A3032 RMK A01 T00310030  RH  099%=      5-min Rain = 0
KCH1 090645Z 00000KT 03/03 A3032 RMK A01 T00320031  RH  100%=      5-min Rain = 0
KCH1 090646Z 33000KT 03/03 A3032 RMK A01 T00320032  RH  100%=      5-min Rain = 0
KCH1 090647Z 33001KT 03/03 A3032 RMK A01 T00330032  RH  100%=      5-min Rain = 0
KCH1 090648Z 34001KT 03/03 A3032 RMK A01 T00320031  RH  100%=      5-min Rain = 0
KCH1 090649Z 34001KT 03/03 A3032 RMK A01 T00300029  RH  099%=      5-min Rain = 0
KCH1 090650Z 34001KT 03/03 A3032 RMK A01 T00290028  RH  099%=      5-min Rain = 0
KCH1 090651Z 35001KT 03/03 A3032 RMK A01 T00300029  RH  099%=      5-min Rain = 0
KCH1 090652Z 35001KT 03/03 A3032 RMK A01 T00290028  RH  099%=      5-min Rain = 0
KCH1 090653Z 35001KT 03/03 A3032 RMK A01 T00300029  RH  100%=      5-min Rain = 0
KCH1 090654Z 36001KT 03/03 A3032 RMK A01 T00300029  RH  100%=      5-min Rain = 0
KCH1 090655Z 00002KT 03/03 A3032 RMK A01 T00290029  RH  100%=      5-min Rain = 0
KCH1 090656Z 00001KT 03/03 A3032 RMK A01 T00290029  RH  100%=      5-min Rain = 0
KCH1 090657Z 00001KT 03/03 A3032 RMK A01 T00300029  RH  100%=      5-min Rain = 0
KCH1 090658Z 00002KT 03/03 A3032 RMK A01 T00300029  RH  100%=      5-min Rain = 0
KCH1 090659Z 00002KT 03/03 A3032 RMK A01 T00300030  RH  100%=      5-min Rain = 0
KCH1 090700Z 00002KT 03/03 A3032 RMK A01 T00300030  RH  100%=      5-min Rain = 0
KCH1 090701Z 00001KT 03/03 A3032 RMK A01 T00310031  RH  100%=      5-min Rain = 0
KCH1 090702Z 36001KT 03/03 A3032 RMK A01 T00320032  RH  100%=      5-min Rain = 0
KCH1 090703Z 35001KT 03/03 A3032 RMK A01 T00330033  RH  100%=      5-min Rain = 0
KCH1 090704Z 00002KT 03/03 A3032 RMK A01 T00340034  RH  100%=      5-min Rain = 0
KCH1 090705Z 01002KT 03/03 A3032 RMK A01 T00340034  RH  100%=      5-min Rain = 0
KCH1 090706Z 01002KT 03/03 A3032 RMK A01 T00330033  RH  100%=      5-min Rain = 0
KCH1 090707Z 01003KT 03/03 A3032 RMK A01 T00320032  RH  100%=      5-min Rain = 0
KCH1 090708Z 01004KT 03/03 A3032 RMK A01 T00310031  RH  100%=      5-min Rain = 0
KCH1 090709Z 01004KT 03/03 A3032 RMK A01 T00300030  RH  100%=      5-min Rain = 0
KCH1 090710Z 01003KT 03/03 A3032 RMK A01 T00290029  RH  100%=      5-min Rain = 0
KCH1 090711Z 00002KT 03/03 A3032 RMK A01 T00290029  RH  100%=      5-min Rain = 0
KCH1 090712Z 36002KT 03/03 A3032 RMK A01 T00300030  RH  100%=      5-min Rain = 0
KCH1 090713Z 34002KT 03/03 A3032 RMK A01 T00310031  RH  100%=      5-min Rain = 0
KCH1 090714Z 33001KT 03/03 A3032 RMK A01 T00320032  RH  100%=      5-min Rain = 0
KCH1 090715Z 33001KT 03/03 A3032 RMK A01 T00330033  RH  100%=      5-min Rain = 0
KCH1 090722Z 31001KT 03/03 A3032 RMK A01 T00340034  RH  100%=      5-min Rain = 0
KCH1 090723Z 31001KT 04/04 A3032 RMK A01 T00350035  RH  100%=      5-min Rain = 0
KCH1 090724Z 31001KT 03/03 A3032 RMK A01 T00330033  RH  100%=      5-min Rain = 0
KCH1 090725Z 31000KT 03/03 A3032 RMK A01 T00320032  RH  100%=      5-min Rain = 0
KCH1 090726Z 00000KT 03/03 A3031 RMK A01 T00300030  RH  100%=      5-min Rain = 0
KCH1 090727Z 01001KT 03/03 A3031 RMK A01 T00270027  RH  100%=      5-min Rain = 0
KCH1 090728Z 01001KT 03/03 A3031 RMK A01 T00260025  RH  100%=      5-min Rain = 0
KCH1 090729Z 02002KT 03/02 A3031 RMK A01 T00250024  RH  100%=      5-min Rain = 0
KCH1 090730Z 02002KT 02/02 A3031 RMK A01 T00240023  RH  100%=      5-min Rain = 0
KCH1 090731Z 02002KT 02/02 A3031 RMK A01 T00230023  RH  100%=      5-min Rain = 0
KCH1 090732Z 02002KT 02/02 A3031 RMK A01 T00230023  RH  100%=      5-min Rain = 0
KCH1 090733Z 01002KT 02/02 A3031 RMK A01 T00240024  RH  100%=      5-min Rain = 0
KCH1 090734Z 00001KT 02/02 A3031 RMK A01 T00240024  RH  100%=      5-min Rain = 0
KCH1 090735Z 00001KT 02/02 A3031 RMK A01 T00230023  RH  100%=      5-min Rain = 0
KCH1 090736Z 00001KT 02/02 A3031 RMK A01 T00240024  RH  100%=      5-min Rain = 0
KCH1 090737Z 00001KT 03/03 A3031 RMK A01 T00250025  RH  100%=      5-min Rain = 0
KCH1 090738Z 36001KT 03/03 A3031 RMK A01 T00250025  RH  100%=      5-min Rain = 0
KCH1 090739Z 35001KT 03/03 A3031 RMK A01 T00250025  RH  100%=      5-min Rain = 0
KCH1 090740Z 35001KT 03/03 A3031 RMK A01 T00250025  RH  100%=      5-min Rain = 0
KCH1 090741Z 35001KT 03/03 A3031 RMK A01 T00250025  RH  100%=      5-min Rain = 0
KCH1 090742Z 35001KT 03/03 A3031 RMK A01 T00260026  RH  100%=      5-min Rain = 0
KCH1 090743Z 35001KT 03/03 A3031 RMK A01 T00250025  RH  100%=      5-min Rain = 0
KCH1 090744Z 35001KT 03/03 A3031 RMK A01 T00250025  RH  100%=      5-min Rain = 0
KCH1 090745Z 34001KT 03/03 A3031 RMK A01 T00250025  RH  100%=      5-min Rain = 0
KCH1 090746Z 33001KT 03/03 A3031 RMK A01 T00250025  RH  100%=      5-min Rain = 0
KCH1 090747Z 33001KT 03/03 A3031 RMK A01 T00250025  RH  100%=      5-min Rain = 0
KCH1 090748Z 32001KT 03/03 A3031 RMK A01 T00260026  RH  100%=      5-min Rain = 0
KCH1 090749Z 32001KT 03/03 A3031 RMK A01 T00280028  RH  100%=      5-min Rain = 0
KCH1 090750Z 32001KT 03/03 A3031 RMK A01 T00290029  RH  100%=      5-min Rain = 0
KCH1 090751Z 32001KT 03/03 A3031 RMK A01 T00300030  RH  100%=      5-min Rain = 0
KCH1 090752Z 32001KT 03/03 A3031 RMK A01 T00300030  RH  100%=      5-min Rain = 0
KCH1 090753Z 32001KT 03/03 A303 RMK A01 T00300030  RH  100%=      5-min Rain = 0
KCH1 090754Z 35001KT 03/03 A303 RMK A01 T00290029  RH  100%=      5-min Rain = 0
KCH1 090755Z 36001KT 03/03 A303 RMK A01 T00290029  RH  100%=      5-min Rain = 0
KCH1 090756Z 00000KT 03/03 A303 RMK A01 T00290029  RH  100%=      5-min Rain = 0
KCH1 090757Z 00000KT 03/03 A303 RMK A01 T00290029  RH  100%=      5-min Rain = 0
KCH1 090758Z 00000KT 03/03 A303 RMK A01 T00290029  RH  100%=      5-min Rain = 0
KCH1 090759Z 00000KT 03/03 A303 RMK A01 T00290029  RH  100%=      5-min Rain = 0
KCH1 090800Z 00000KT 03/03 A303 RMK A01 T00290029  RH  100%=      5-min Rain = 0
KCH1 090801Z 00000KT 03/03 A303 RMK A01 T00280028  RH  100%=      5-min Rain = 0
KCH1 090802Z 33001KT 03/03 A303 RMK A01 T00280028  RH  100%=      5-min Rain = 0
KCH1 090803Z 33001KT 03/03 A303 RMK A01 T00270027  RH  100%=      5-min Rain = 0
KCH1 090804Z 33001KT 03/03 A303 RMK A01 T00270027  RH  100%=      5-min Rain = 0
KCH1 090805Z 33001KT 03/03 A303 RMK A01 T00270027  RH  100%=      5-min Rain = 0
KCH1 090806Z 32001KT 03/03 A303 RMK A01 T00270027  RH  100%=      5-min Rain = 0
KCH1 090807Z 32001KT 03/03 A303 RMK A01 T00270027  RH  100%=      5-min Rain = 0
KCH1 090808Z 32001KT 03/03 A303 RMK A01 T00270027  RH  100%=      5-min Rain = 0
KCH1 090809Z 32000KT 03/03 A303 RMK A01 T00280028  RH  100%=      5-min Rain = 0
KCH1 090810Z 00000KT 03/03 A303 RMK A01 T00270027  RH  100%=      5-min Rain = 0
KCH1 090811Z 00000KT 03/03 A303 RMK A01 T00260026  RH  100%=      5-min Rain = 0
KCH1 090812Z 00000KT 03/03 A303 RMK A01 T00250025  RH  100%=      5-min Rain = 0
KCH1 090813Z 32000KT 02/02 A303 RMK A01 T00240024  RH  100%=      5-min Rain = 0
KCH1 090814Z 33001KT 02/02 A303 RMK A01 T00240024  RH  100%=      5-min Rain = 0
KCH1 090815Z 33001KT 03/03 A303 RMK A01 T00250025  RH  100%=      5-min Rain = 0
KCH1 090816Z 34001KT 03/03 A303 RMK A01 T00270027  RH  100%=      5-min Rain = 0
KCH1 090817Z 35001KT 03/03 A303 RMK A01 T00280028  RH  100%=      5-min Rain = 0
KCH1 090818Z 35002KT 03/03 A303 RMK A01 T00280028  RH  100%=      5-min Rain = 0
KCH1 090819Z 35002KT 03/03 A303 RMK A01 T00280028  RH  100%=      5-min Rain = 0
KCH1 090820Z 35002KT 03/03 A303 RMK A01 T00280028  RH  100%=      5-min Rain = 0
KCH1 090821Z 35002KT 03/03 A303 RMK A01 T00290029  RH  100%=      5-min Rain = 0
KCH1 090822Z 35002KT 03/03 A303 RMK A01 T00290029  RH  100%=      5-min Rain = 0
KCH1 090823Z 34002KT 03/03 A303 RMK A01 T00300030  RH  100%=      5-min Rain = 0
KCH1 090824Z 34002KT 03/03 A303 RMK A01 T00300030  RH  100%=      5-min Rain = 0
KCH1 090825Z 34002KT 03/03 A3029 RMK A01 T00300030  RH  100%=      5-min Rain = 0
KCH1 090826Z 33002KT 03/03 A3029 RMK A01 T00300030  RH  100%=      5-min Rain = 0
KCH1 090827Z 33002KT 03/03 A3029 RMK A01 T00300030  RH  100%=      5-min Rain = 0
KCH1 090828Z 33002KT 03/03 A3029 RMK A01 T00290029  RH  100%=      5-min Rain = 0
KCH1 090829Z 33001KT 03/03 A3029 RMK A01 T00290029  RH  100%=      5-min Rain = 0
KCH1 090830Z 33001KT 03/03 A3029 RMK A01 T00280028  RH  100%=      5-min Rain = 0
KCH1 090831Z 33001KT 03/03 A3029 RMK A01 T00260026  RH  100%=      5-min Rain = 0
KCH1 090832Z 33001KT 03/02 A3029 RMK A01 T00250024  RH  100%=      5-min Rain = 0
KCH1 090833Z 32001KT 02/02 A3029 RMK A01 T00240024  RH  100%=      5-min Rain = 0
KCH1 090834Z 32001KT 02/02 A3029 RMK A01 T00230023  RH  100%=      5-min Rain = 0
KCH1 090835Z 32001KT 02/02 A3029 RMK A01 T00230023  RH  100%=      5-min Rain = 0
KCH1 090836Z 32001KT 02/02 A3029 RMK A01 T00230023  RH  100%=      5-min Rain = 0
KCH1 090837Z 32000KT 02/02 A3029 RMK A01 T00230023  RH  100%=      5-min Rain = 0
KCH1 090838Z 31000KT 02/02 A3029 RMK A01 T00240024  RH  100%=      5-min Rain = 0
KCH1 090839Z 00000KT 02/02 A3029 RMK A01 T00240024  RH  100%=      5-min Rain = 0
KCH1 090840Z 00000KT 03/03 A3029 RMK A01 T00250025  RH  100%=      5-min Rain = 0
KCH1 090841Z 00000KT 03/03 A3029 RMK A01 T00250025  RH  100%=      5-min Rain = 0
KCH1 090842Z 00000KT 03/03 A3029 RMK A01 T00250025  RH  100%=      5-min Rain = 0
KCH1 090843Z 00000KT 03/03 A3029 RMK A01 T00250025  RH  100%=      5-min Rain = 0
KCH1 090844Z 00000KT 03/03 A3029 RMK A01 T00260026  RH  100%=      5-min Rain = 0
KCH1 090845Z 00000KT 03/03 A3029 RMK A01 T00270027  RH  100%=      5-min Rain = 0
KCH1 090846Z 24001KT 03/03 A3029 RMK A01 T00270027  RH  100%=      5-min Rain = 0
KCH1 090847Z 24000KT 03/03 A3029 RMK A01 T00270027  RH  100%=      5-min Rain = 0
KCH1 090848Z 24001KT 03/03 A3029 RMK A01 T00260026  RH  100%=      5-min Rain = 0
KCH1 090849Z 25001KT 03/03 A3029 RMK A01 T00260026  RH  100%=      5-min Rain = 0
KCH1 090850Z 25001KT 03/03 A3028 RMK A01 T00270027  RH  100%=      5-min Rain = 0
KCH1 090851Z 24001KT 03/03 A3028 RMK A01 T00270027  RH  100%=      5-min Rain = 0
KCH1 090852Z 24001KT 03/03 A3028 RMK A01 T00270027  RH  100%=      5-min Rain = 0
KCH1 090853Z 24001KT 03/03 A3028 RMK A01 T00270027  RH  100%=      5-min Rain = 0
KCH1 090854Z 24001KT 03/03 A3028 RMK A01 T00270027  RH  100%=      5-min Rain = 0
KCH1 090855Z 25001KT 03/03 A3028 RMK A01 T00270027  RH  100%=      5-min Rain = 0
KCH1 090856Z 25001KT 03/03 A3028 RMK A01 T00270027  RH  100%=      5-min Rain = 0
KCH1 090857Z 26001KT 03/03 A3028 RMK A01 T00290029  RH  100%=      5-min Rain = 0
KCH1 090858Z 26001KT 03/03 A3028 RMK A01 T00290029  RH  100%=      5-min Rain = 0
KCH1 090859Z 26001KT 03/03 A3028 RMK A01 T00290029  RH  100%=      5-min Rain = 0
KCH1 090900Z 26001KT 03/03 A3028 RMK A01 T00290029  RH  100%=      5-min Rain = 0
KCH1 090901Z 26001KT 03/03 A3028 RMK A01 T00280028  RH  100%=      5-min Rain = 0
KCH1 090902Z 25001KT 03/03 A3028 RMK A01 T00290029  RH  100%=      5-min Rain = 0
KCH1 090903Z 25001KT 03/03 A3028 RMK A01 T00290029  RH  100%=      5-min Rain = 0
KCH1 090904Z 25001KT 03/03 A3028 RMK A01 T00290029  RH  100%=      5-min Rain = 0
KCH1 090905Z 27001KT 03/03 A3028 RMK A01 T00290029  RH  100%=      5-min Rain = 0
KCH1 090906Z 28001KT 03/03 A3028 RMK A01 T00290029  RH  100%=      5-min Rain = 0
KCH1 090907Z 28000KT 03/03 A3028 RMK A01 T00290029  RH  100%=      5-min Rain = 0
KCH1 090908Z 29000KT 03/03 A3028 RMK A01 T00270027  RH  100%=      5-min Rain = 0
KCH1 090909Z 30001KT 03/03 A3028 RMK A01 T00260026  RH  100%=      5-min Rain = 0
KCH1 090910Z 32001KT 03/03 A3028 RMK A01 T00250025  RH  100%=      5-min Rain = 0
KCH1 090911Z 32001KT 03/03 A3028 RMK A01 T00250025  RH  100%=      5-min Rain = 0
KCH1 090912Z 32001KT 02/02 A3028 RMK A01 T00240024  RH  100%=      5-min Rain = 0
KCH1 090913Z 32001KT 03/03 A3028 RMK A01 T00250025  RH  100%=      5-min Rain = 0
KCH1 090914Z 32001KT 03/03 A3028 RMK A01 T00270027  RH  100%=      5-min Rain = 0
KCH1 090915Z 32001KT 03/03 A3028 RMK A01 T00280028  RH  100%=      5-min Rain = 0
KCH1 090916Z 32001KT 03/03 A3028 RMK A01 T00280028  RH  100%=      5-min Rain = 0
KCH1 090917Z 32001KT 03/03 A3028 RMK A01 T00280028  RH  100%=      5-min Rain = 0
KCH1 090918Z 33001KT 03/03 A3028 RMK A01 T00280028  RH  100%=      5-min Rain = 0
KCH1 090919Z 33001KT 03/03 A3028 RMK A01 T00280028  RH  100%=      5-min Rain = 0
KCH1 090920Z 33001KT 03/03 A3028 RMK A01 T00280028  RH  100%=      5-min Rain = 0
KCH1 090921Z 33001KT 03/03 A3028 RMK A01 T00280028  RH  100%=      5-min Rain = 0
KCH1 090922Z 33001KT 03/03 A3028 RMK A01 T00270027  RH  100%=      5-min Rain = 0
KCH1 090923Z 34001KT 03/03 A3028 RMK A01 T00270027  RH  100%=      5-min Rain = 0
KCH1 090924Z 34001KT 03/03 A3028 RMK A01 T00270027  RH  100%=      5-min Rain = 0
KCH1 090925Z 34001KT 03/03 A3028 RMK A01 T00280028  RH  100%=      5-min Rain = 0
KCH1 090926Z 35002KT 03/03 A3028 RMK A01 T00270027  RH  100%=      5-min Rain = 0
KCH1 090927Z 35002KT 02/02 A3028 RMK A01 T00240024  RH  100%=      5-min Rain = 0
KCH1 090928Z 34002KT 02/02 A3028 RMK A01 T00210021  RH  100%=      5-min Rain = 0
KCH1 090929Z 34002KT 02/02 A3028 RMK A01 T00190019  RH  100%=      5-min Rain = 0
KCH1 090930Z 34002KT 02/02 A3028 RMK A01 T00180018  RH  100%=      5-min Rain = 0
KCH1 090931Z 34002KT 02/02 A3028 RMK A01 T00160016  RH  100%=      5-min Rain = 0
KCH1 090932Z 34002KT 02/02 A3028 RMK A01 T00160016  RH  100%=      5-min Rain = 0
KCH1 090933Z 33001KT 02/02 A3027 RMK A01 T00150015  RH  100%=      5-min Rain = 0
KCH1 090934Z 33001KT 01/01 A3027 RMK A01 T00140014  RH  100%=      5-min Rain = 0
KCH1 090935Z 33001KT 01/01 A3027 RMK A01 T00140014  RH  100%=      5-min Rain = 0
KCH1 090936Z 33001KT 02/02 A3027 RMK A01 T00150015  RH  100%=      5-min Rain = 0
KCH1 090937Z 33001KT 02/02 A3027 RMK A01 T00170017  RH  100%=      5-min Rain = 0
KCH1 090938Z 33001KT 02/02 A3027 RMK A01 T00220022  RH  100%=      5-min Rain = 0
KCH1 090939Z 32001KT 02/02 A3027 RMK A01 T00240024  RH  100%=      5-min Rain = 0
KCH1 090940Z 31001KT 02/02 A3027 RMK A01 T00240024  RH  100%=      5-min Rain = 0
KCH1 090941Z 30002KT 02/02 A3027 RMK A01 T00230023  RH  100%=      5-min Rain = 0
KCH1 090942Z 30002KT 02/02 A3027 RMK A01 T00240024  RH  100%=      5-min Rain = 0
KCH1 090943Z 30003KT 03/03 A3027 RMK A01 T00260026  RH  100%=      5-min Rain = 0
KCH1 090944Z 30003KT 03/03 A3027 RMK A01 T00280028  RH  100%=      5-min Rain = 0
KCH1 090945Z 30003KT 03/03 A3027 RMK A01 T00300030  RH  100%=      5-min Rain = 0
KCH1 090946Z 29003KT 03/03 A3027 RMK A01 T00310031  RH  100%=      5-min Rain = 0
KCH1 090947Z 29003KT 03/03 A3027 RMK A01 T00320032  RH  100%=      5-min Rain = 0
KCH1 090948Z 30003KT 03/03 A3027 RMK A01 T00340034  RH  100%=      5-min Rain = 0
KCH1 090949Z 30003KT 03/03 A3027 RMK A01 T00340034  RH  100%=      5-min Rain = 0
KCH1 090950Z 30002KT 04/04 A3027 RMK A01 T00350035  RH  100%=      5-min Rain = 0
KCH1 090951Z 30002KT 04/04 A3027 RMK A01 T00350035  RH  100%=      5-min Rain = 0
KCH1 090952Z 30002KT 03/03 A3027 RMK A01 T00340034  RH  100%=      5-min Rain = 0
KCH1 090953Z 30002KT 03/03 A3027 RMK A01 T00340034  RH  100%=      5-min Rain = 0
KCH1 090954Z 30002KT 03/03 A3027 RMK A01 T00320032  RH  100%=      5-min Rain = 0
KCH1 090955Z 30001KT 03/03 A3027 RMK A01 T00310031  RH  100%=      5-min Rain = 0
KCH1 090956Z 31001KT 03/03 A3027 RMK A01 T00310031  RH  100%=      5-min Rain = 0
KCH1 090957Z 31001KT 03/03 A3027 RMK A01 T00310031  RH  100%=      5-min Rain = 0
KCH1 090958Z 31001KT 03/03 A3027 RMK A01 T00310031  RH  100%=      5-min Rain = 0
KCH1 090959Z 32001KT 03/03 A3027 RMK A01 T00320032  RH  100%=      5-min Rain = 0
KCH1 091000Z 32001KT 03/03 A3027 RMK A01 T00320032  RH  100%=      5-min Rain = 0
KCH1 091001Z 31001KT 03/03 A3027 RMK A01 T00330033  RH  100%=      5-min Rain = 0
KCH1 091002Z 31001KT 03/03 A3027 RMK A01 T00340034  RH  100%=      5-min Rain = 0
KCH1 091003Z 31001KT 04/04 A3027 RMK A01 T00350035  RH  100%=      5-min Rain = 0
KCH1 091004Z 32001KT 04/04 A3027 RMK A01 T00360036  RH  100%=      5-min Rain = 0
KCH1 091005Z 32002KT 04/04 A3027 RMK A01 T00370037  RH  100%=      5-min Rain = 0
KCH1 091006Z 33001KT 04/04 A3027 RMK A01 T00380038  RH  100%=      5-min Rain = 0
KCH1 091007Z 34002KT 04/04 A3027 RMK A01 T00370037  RH  100%=      5-min Rain = 0
KCH1 091008Z 34001KT 04/04 A3027 RMK A01 T00350035  RH  100%=      5-min Rain = 0
KCH1 091009Z 34001KT 03/03 A3027 RMK A01 T00310031  RH  100%=      5-min Rain = 0
KCH1 091010Z 34001KT 03/03 A3027 RMK A01 T00280028  RH  100%=      5-min Rain = 0
KCH1 091011Z 34002KT 03/03 A3027 RMK A01 T00260026  RH  100%=      5-min Rain = 0
KCH1 091012Z 33002KT 03/03 A3027 RMK A01 T00260026  RH  100%=      5-min Rain = 0
KCH1 091013Z 33002KT 03/03 A3027 RMK A01 T00260026  RH  100%=      5-min Rain = 0
KCH1 091014Z 32002KT 03/03 A3027 RMK A01 T00270027  RH  100%=      5-min Rain = 0
KCH1 091015Z 32002KT 03/03 A3027 RMK A01 T00270027  RH  100%=      5-min Rain = 0
KCH1 091016Z 31002KT 03/03 A3027 RMK A01 T00280028  RH  100%=      5-min Rain = 0
KCH1 091017Z 31002KT 03/03 A3027 RMK A01 T00280028  RH  100%=      5-min Rain = 0
KCH1 091018Z 30002KT 03/03 A3027 RMK A01 T00280028  RH  100%=      5-min Rain = 0
KCH1 091019Z 30003KT 03/03 A3027 RMK A01 T00280028  RH  100%=      5-min Rain = 0
KCH1 091020Z 30003KT 03/03 A3027 RMK A01 T00270027  RH  100%=      5-min Rain = 0
KCH1 091021Z 31003KT 03/03 A3027 RMK A01 T00270027  RH  100%=      5-min Rain = 0
KCH1 091022Z 31003KT 03/03 A3027 RMK A01 T00280028  RH  100%=      5-min Rain = 0
KCH1 091023Z 31003KT 03/03 A3027 RMK A01 T00300030  RH  100%=      5-min Rain = 0
KCH1 091024Z 31003KT 03/03 A3027 RMK A01 T00300030  RH  100%=      5-min Rain = 0
KCH1 091025Z 32003KT 03/03 A3027 RMK A01 T00310031  RH  100%=      5-min Rain = 0
KCH1 091026Z 32003KT 03/03 A3027 RMK A01 T00300030  RH  100%=      5-min Rain = 0
KCH1 091027Z 31003KT 03/03 A3027 RMK A01 T00300030  RH  100%=      5-min Rain = 0
KCH1 091028Z 32003KT 03/03 A3027 RMK A01 T00300030  RH  100%=      5-min Rain = 0
KCH1 091029Z 32003KT 03/03 A3027 RMK A01 T00310031  RH  100%=      5-min Rain = 0
KCH1 091030Z 31003KT 03/03 A3027 RMK A01 T00310031  RH  100%=      5-min Rain = 0
KCH1 091031Z 32003KT 03/03 A3027 RMK A01 T00320032  RH  100%=      5-min Rain = 0
KCH1 091032Z 31003KT 03/03 A3027 RMK A01 T00330033  RH  100%=      5-min Rain = 0
KCH1 091033Z 31003KT 04/04 A3027 RMK A01 T00350035  RH  100%=      5-min Rain = 0
KCH1 091034Z 31003KT 04/04 A3027 RMK A01 T00370037  RH  100%=      5-min Rain = 0
KCH1 091035Z 31003KT 04/04 A3027 RMK A01 T00380038  RH  100%=      5-min Rain = 0
KCH1 091036Z 31003KT 04/04 A3027 RMK A01 T00380038  RH  100%=      5-min Rain = 0
KCH1 091037Z 32003KT 04/04 A3027 RMK A01 T00380038  RH  100%=      5-min Rain = 0
KCH1 091038Z 32003KT 04/04 A3027 RMK A01 T00380038  RH  100%=      5-min Rain = 0
KCH1 091039Z 32003KT 04/04 A3027 RMK A01 T00380038  RH  100%=      5-min Rain = 0
KCH1 091040Z 32003KT 04/04 A3027 RMK A01 T00380038  RH  100%=      5-min Rain = 0
KCH1 091041Z 33003KT 04/04 A3027 RMK A01 T00370037  RH  100%=      5-min Rain = 0
KCH1 091042Z 33003KT 04/04 A3027 RMK A01 T00360036  RH  100%=      5-min Rain = 0
KCH1 091043Z 34003KT 04/04 A3027 RMK A01 T00350035  RH  100%=      5-min Rain = 0
KCH1 091044Z 34002KT 03/03 A3027 RMK A01 T00340034  RH  100%=      5-min Rain = 0
KCH1 091045Z 34002KT 03/03 A3027 RMK A01 T00330033  RH  100%=      5-min Rain = 0
KCH1 091046Z 33003KT 03/03 A3027 RMK A01 T00310031  RH  100%=      5-min Rain = 0
KCH1 091047Z 33002KT 03/03 A3027 RMK A01 T00300030  RH  100%=      5-min Rain = 0
KCH1 091048Z 33002KT 03/03 A3027 RMK A01 T00290029  RH  100%=      5-min Rain = 0
KCH1 091049Z 32002KT 03/03 A3027 RMK A01 T00300030  RH  100%=      5-min Rain = 0
KCH1 091050Z 31002KT 03/03 A3027 RMK A01 T00310031  RH  100%=      5-min Rain = 0
KCH1 091051Z 30002KT 03/03 A3027 RMK A01 T00310031  RH  100%=      5-min Rain = 0
KCH1 091052Z 30002KT 03/03 A3027 RMK A01 T00310031  RH  100%=      5-min Rain = 0
KCH1 091053Z 30002KT 03/03 A3027 RMK A01 T00310031  RH  100%=      5-min Rain = 0
KCH1 091054Z 30003KT 03/03 A3027 RMK A01 T00310031  RH  100%=      5-min Rain = 0
KCH1 091055Z 31003KT 03/03 A3027 RMK A01 T00320032  RH  100%=      5-min Rain = 0
KCH1 091056Z 31003KT 03/03 A3027 RMK A01 T00330033  RH  100%=      5-min Rain = 0
KCH1 091057Z 31002KT 03/03 A3027 RMK A01 T00340034  RH  100%=      5-min Rain = 0
KCH1 091058Z 31002KT 04/04 A3027 RMK A01 T00350035  RH  100%=      5-min Rain = 0
KCH1 091059Z 30001KT 04/04 A3027 RMK A01 T00350035  RH  100%=      5-min Rain = 0
KCH1 091100Z 30002KT 04/04 A3027 RMK A01 T00350035  RH  100%=      5-min Rain = 0
KCH1 091101Z 29002KT 03/03 A3027 RMK A01 T00340034  RH  100%=      5-min Rain = 0
KCH1 091102Z 29002KT 03/03 A3027 RMK A01 T00340034  RH  100%=      5-min Rain = 0
KCH1 091103Z 29002KT 04/04 A3027 RMK A01 T00350035  RH  100%=      5-min Rain = 0
KCH1 091104Z 29002KT 04/04 A3027 RMK A01 T00350035  RH  100%=      5-min Rain = 0
KCH1 091105Z 29002KT 04/04 A3027 RMK A01 T00360036  RH  100%=      5-min Rain = 0
KCH1 091106Z 29002KT 04/04 A3027 RMK A01 T00360036  RH  100%=      5-min Rain = 0
KCH1 091107Z 29002KT 04/04 A3027 RMK A01 T00360036  RH  100%=      5-min Rain = 0
KCH1 091108Z 29002KT 04/04 A3027 RMK A01 T00360036  RH  100%=      5-min Rain = 0
KCH1 091109Z 29002KT 04/04 A3027 RMK A01 T00360036  RH  100%=      5-min Rain = 0
KCH1 091110Z 29003KT 04/04 A3027 RMK A01 T00350035  RH  100%=      5-min Rain = 0
KCH1 091111Z 29003KT 04/04 A3027 RMK A01 T00350035  RH  100%=      5-min Rain = 0
KCH1 091112Z 29003KT 03/03 A3027 RMK A01 T00340034  RH  100%=      5-min Rain = 0
KCH1 091113Z 29003KT 03/03 A3027 RMK A01 T00340034  RH  100%=      5-min Rain = 0
KCH1 091114Z 29002KT 03/03 A3027 RMK A01 T00330033  RH  100%=      5-min Rain = 0
KCH1 091115Z 30003KT 03/03 A3027 RMK A01 T00320032  RH  100%=      5-min Rain = 0
KCH1 091116Z 30003KT 03/03 A3027 RMK A01 T00310031  RH  100%=      5-min Rain = 0
KCH1 091117Z 30003KT 03/03 A3027 RMK A01 T00300030  RH  100%=      5-min Rain = 0
KCH1 091118Z 30003KT 03/03 A3027 RMK A01 T00290029  RH  100%=      5-min Rain = 0
KCH1 091119Z 30003KT 03/03 A3027 RMK A01 T00290029  RH  100%=      5-min Rain = 0
KCH1 091120Z 29003KT 03/03 A3027 RMK A01 T00310031  RH  100%=      5-min Rain = 0
KCH1 091121Z 29003KT 03/03 A3027 RMK A01 T00320032  RH  100%=      5-min Rain = 0
KCH1 091122Z 29003KT 03/03 A3027 RMK A01 T00320032  RH  100%=      5-min Rain = 0
KCH1 091123Z 29003KT 03/03 A3027 RMK A01 T00320032  RH  100%=      5-min Rain = 0
KCH1 091124Z 28004KT 03/03 A3027 RMK A01 T00330033  RH  100%=      5-min Rain = 0
KCH1 091125Z 29004KT 03/03 A3027 RMK A01 T00340034  RH  100%=      5-min Rain = 0
KCH1 091126Z 29004KT 04/04 A3027 RMK A01 T00360036  RH  100%=      5-min Rain = 0
KCH1 091127Z 29004KT 04/04 A3027 RMK A01 T00370037  RH  100%=      5-min Rain = 0
KCH1 091128Z 29004KT 04/04 A3028 RMK A01 T00370037  RH  100%=      5-min Rain = 0
KCH1 091129Z 29004KT 04/04 A3028 RMK A01 T00370037  RH  100%=      5-min Rain = 0
KCH1 091130Z 30004KT 04/04 A3028 RMK A01 T00370037  RH  100%=      5-min Rain = 0
KCH1 091131Z 30004KT 04/04 A3027 RMK A01 T00360036  RH  100%=      5-min Rain = 0
KCH1 091132Z 30004KT 04/04 A3027 RMK A01 T00370037  RH  100%=      5-min Rain = 0
KCH1 091133Z 30004KT 04/04 A3027 RMK A01 T00370037  RH  100%=      5-min Rain = 0
KCH1 091134Z 30004KT 04/04 A3027 RMK A01 T00380038  RH  100%=      5-min Rain = 0
KCH1 091135Z 29004KT 04/04 A3027 RMK A01 T00380038  RH  100%=      5-min Rain = 0
KCH1 091136Z 29004KT 04/04 A3027 RMK A01 T00370037  RH  100%=      5-min Rain = 0
KCH1 091137Z 29004KT 04/04 A3027 RMK A01 T00370037  RH  100%=      5-min Rain = 0
KCH1 091138Z 29004KT 04/04 A3027 RMK A01 T00370037  RH  100%=      5-min Rain = 0
KCH1 091139Z 29004KT 04/04 A3027 RMK A01 T00370037  RH  100%=      5-min Rain = 0
KCH1 091140Z 29004KT 04/04 A3027 RMK A01 T00380038  RH  100%=      5-min Rain = 0
KCH1 091141Z 29004KT 04/04 A3027 RMK A01 T00380038  RH  100%=      5-min Rain = 0
KCH1 091142Z 29004KT 04/04 A3027 RMK A01 T00380038  RH  100%=      5-min Rain = 0
KCH1 091143Z 29004KT 04/04 A3027 RMK A01 T00390039  RH  100%=      5-min Rain = 0
KCH1 091144Z 29004KT 04/04 A3027 RMK A01 T00390039  RH  100%=      5-min Rain = 0
KCH1 091145Z 30004KT 04/04 A3027 RMK A01 T00390039  RH  100%=      5-min Rain = 0
KCH1 091146Z 29004KT 04/04 A3027 RMK A01 T00390039  RH  100%=      5-min Rain = 0
KCH1 091147Z 29004KT 04/04 A3027 RMK A01 T00400040  RH  100%=      5-min Rain = 0
KCH1 091148Z 29004KT 04/04 A3027 RMK A01 T00390039  RH  100%=      5-min Rain = 0
KCH1 091149Z 29004KT 04/04 A3027 RMK A01 T00400040  RH  100%=      5-min Rain = 0
KCH1 091150Z 29003KT 04/04 A3027 RMK A01 T00400040  RH  100%=      5-min Rain = 0
KCH1 091151Z 29004KT 04/04 A3027 RMK A01 T00400040  RH  100%=      5-min Rain = 0
KCH1 091152Z 29004KT 04/04 A3027 RMK A01 T00400040  RH  100%=      5-min Rain = 0
KCH1 091153Z 29004KT 04/04 A3027 RMK A01 T00400040  RH  100%=      5-min Rain = 0
KCH1 091154Z 29004KT 04/04 A3028 RMK A01 T00400040  RH  100%=      5-min Rain = 0
KCH1 091155Z 29004KT 04/04 A3028 RMK A01 T00390039  RH  100%=      5-min Rain = 0
KCH1 091156Z 29004KT 04/04 A3028 RMK A01 T00390039  RH  100%=      5-min Rain = 0
KCH1 091157Z 30004KT 04/04 A3028 RMK A01 T00390039  RH  100%=      5-min Rain = 0
KCH1 091158Z 29003KT 04/04 A3028 RMK A01 T00390039  RH  100%=      5-min Rain = 0
KCH1 091159Z 29004KT 04/04 A3028 RMK A01 T00380038  RH  100%=      5-min Rain = 0
KCH1 091200Z 29003KT 04/04 A3028 RMK A01 T00380038  RH  100%=      5-min Rain = 0
KCH1 091201Z 30003KT 04/04 A3028 RMK A01 T00380038  RH  100%=      5-min Rain = 0
KCH1 091202Z 30003KT 04/04 A3028 RMK A01 T00380038  RH  100%=      5-min Rain = 0
KCH1 091203Z 29003KT 04/04 A3028 RMK A01 T00380038  RH  100%=      5-min Rain = 0
KCH1 091204Z 29003KT 04/04 A3028 RMK A01 T00380038  RH  100%=      5-min Rain = 0
KCH1 091205Z 29002KT 04/04 A3028 RMK A01 T00380038  RH  100%=      5-min Rain = 0
KCH1 091206Z 29002KT 04/04 A3028 RMK A01 T00370037  RH  100%=      5-min Rain = 0
KCH1 091207Z 29002KT 04/04 A3028 RMK A01 T00370037  RH  100%=      5-min Rain = 0
KCH1 091208Z 29002KT 04/04 A3028 RMK A01 T00370037  RH  100%=      5-min Rain = 0
KCH1 091209Z 29002KT 04/04 A3028 RMK A01 T00370037  RH  100%=      5-min Rain = 0
KCH1 091210Z 29003KT 04/04 A3028 RMK A01 T00370037  RH  100%=      5-min Rain = 0
KCH1 091211Z 28003KT 04/04 A3028 RMK A01 T00370037  RH  100%=      5-min Rain = 0
KCH1 091212Z 28003KT 04/04 A3028 RMK A01 T00370037  RH  100%=      5-min Rain = 0
KCH1 091213Z 28003KT 04/04 A3028 RMK A01 T00370037  RH  100%=      5-min Rain = 0
KCH1 091214Z 28003KT 04/04 A3028 RMK A01 T00380038  RH  100%=      5-min Rain = 0
KCH1 091215Z 28004KT 04/04 A3028 RMK A01 T00380038  RH  100%=      5-min Rain = 0
KCH1 091216Z 28004KT 04/04 A3028 RMK A01 T00380038  RH  100%=      5-min Rain = 0
KCH1 091217Z 28003KT 04/04 A3028 RMK A01 T00380038  RH  100%=      5-min Rain = 0
KCH1 091218Z 28003KT 04/04 A3028 RMK A01 T00380038  RH  100%=      5-min Rain = 0
KCH1 091219Z 28003KT 04/04 A3028 RMK A01 T00380038  RH  100%=      5-min Rain = 0
KCH1 091220Z 29003KT 04/04 A3028 RMK A01 T00370037  RH  100%=      5-min Rain = 0
KCH1 091221Z 29003KT 04/04 A3028 RMK A01 T00370037  RH  100%=      5-min Rain = 0
KCH1 091222Z 29003KT 04/04 A3028 RMK A01 T00360036  RH  100%=      5-min Rain = 0
KCH1 091223Z 30002KT 04/04 A3028 RMK A01 T00360036  RH  100%=      5-min Rain = 0
KCH1 091224Z 31002KT 04/04 A3028 RMK A01 T00360036  RH  100%=      5-min Rain = 0
KCH1 091225Z 30002KT 03/03 A3028 RMK A01 T00320032  RH  100%=      5-min Rain = 0
KCH1 091226Z 29001KT 02/02 A3028 RMK A01 T00240024  RH  100%=      5-min Rain = 0
KCH1 091227Z 29001KT 02/02 A3028 RMK A01 T00200020  RH  100%=      5-min Rain = 0
KCH1 091228Z 29001KT 02/02 A3028 RMK A01 T00190019  RH  100%=      5-min Rain = 0
KCH1 091229Z 29001KT 02/02 A3028 RMK A01 T00190019  RH  100%=      5-min Rain = 0
KCH1 091230Z 28002KT 02/02 A3028 RMK A01 T00200020  RH  100%=      5-min Rain = 0
KCH1 091231Z 28002KT 02/02 A3028 RMK A01 T00210021  RH  100%=      5-min Rain = 0
KCH1 091232Z 29002KT 02/02 A3028 RMK A01 T00220022  RH  100%=      5-min Rain = 0
KCH1 091233Z 28002KT 03/03 A3028 RMK A01 T00250025  RH  100%=      5-min Rain = 0
KCH1 091234Z 28003KT 03/03 A3028 RMK A01 T00260026  RH  100%=      5-min Rain = 0
KCH1 091235Z 28003KT 03/03 A3028 RMK A01 T00280028  RH  100%=      5-min Rain = 0
KCH1 091236Z 28003KT 03/03 A3028 RMK A01 T00290028  RH  100%=      5-min Rain = 0
KCH1 091237Z 28003KT 03/03 A3028 RMK A01 T00290029  RH  100%=      5-min Rain = 0
KCH1 091238Z 27003KT 03/03 A3028 RMK A01 T00300030  RH  100%=      5-min Rain = 0
KCH1 091239Z 27003KT 03/03 A3028 RMK A01 T00300030  RH  100%=      5-min Rain = 0
KCH1 091240Z 27003KT 03/03 A3028 RMK A01 T00290029  RH  100%=      5-min Rain = 0
KCH1 091241Z 26003KT 03/03 A3028 RMK A01 T00290029  RH  100%=      5-min Rain = 0
KCH1 091242Z 26003KT 03/03 A3028 RMK A01 T00290029  RH  100%=      5-min Rain = 0
KCH1 091243Z 26003KT 03/03 A3028 RMK A01 T00300030  RH  100%=      5-min Rain = 0
KCH1 091244Z 26003KT 03/03 A3028 RMK A01 T00300030  RH  100%=      5-min Rain = 0
KCH1 091245Z 27003KT 03/03 A3028 RMK A01 T00290029  RH  100%=      5-min Rain = 0
KCH1 091246Z 27003KT 03/03 A3028 RMK A01 T00290029  RH  100%=      5-min Rain = 0
KCH1 091247Z 27003KT 03/03 A3028 RMK A01 T00290029  RH  100%=      5-min Rain = 0
KCH1 091248Z 27002KT 03/03 A3028 RMK A01 T00290029  RH  100%=      5-min Rain = 0
KCH1 091249Z 28002KT 03/03 A3028 RMK A01 T00280028  RH  100%=      5-min Rain = 0
KCH1 091250Z 28002KT 03/03 A3028 RMK A01 T00270027  RH  100%=      5-min Rain = 0
KCH1 091251Z 28003KT 03/03 A3028 RMK A01 T00270027  RH  100%=      5-min Rain = 0
KCH1 091252Z 28003KT 03/03 A3028 RMK A01 T00260026  RH  100%=      5-min Rain = 0
KCH1 091253Z 28002KT 03/03 A3028 RMK A01 T00260026  RH  100%=      5-min Rain = 0
KCH1 091254Z 28002KT 03/03 A3028 RMK A01 T00260026  RH  100%=      5-min Rain = 0
KCH1 091255Z 28002KT 03/03 A3028 RMK A01 T00260026  RH  100%=      5-min Rain = 0
KCH1 091256Z 27002KT 03/03 A3028 RMK A01 T00260026  RH  100%=      5-min Rain = 0
KCH1 091257Z 27002KT 03/03 A3028 RMK A01 T00260026  RH  100%=      5-min Rain = 0
KCH1 091258Z 27002KT 03/03 A3028 RMK A01 T00260026  RH  100%=      5-min Rain = 0
KCH1 091259Z 27002KT 03/03 A3028 RMK A01 T00270027  RH  100%=      5-min Rain = 0
KCH1 091300Z 27002KT 03/03 A3028 RMK A01 T00270027  RH  100%=      5-min Rain = 0
KCH1 091301Z 27002KT 03/03 A3028 RMK A01 T00260026  RH  100%=      5-min Rain = 0
KCH1 091302Z 28003KT 03/03 A3028 RMK A01 T00260026  RH  100%=      5-min Rain = 0
KCH1 091303Z 28003KT 03/03 A3028 RMK A01 T00260026  RH  100%=      5-min Rain = 0
KCH1 091304Z 29002KT 03/03 A3028 RMK A01 T00260026  RH  100%=      5-min Rain = 0
KCH1 091305Z 30002KT 03/03 A3028 RMK A01 T00260026  RH  100%=      5-min Rain = 0
KCH1 091306Z 31002KT 03/03 A3028 RMK A01 T00260026  RH  100%=      5-min Rain = 0
KCH1 091307Z 32002KT 03/03 A3028 RMK A01 T00260026  RH  100%=      5-min Rain = 0
KCH1 091308Z 33002KT 02/02 A3028 RMK A01 T00240024  RH  100%=      5-min Rain = 0
KCH1 091309Z 35002KT 02/02 A3028 RMK A01 T00200020  RH  100%=      5-min Rain = 0
KCH1 091310Z 02002KT 02/02 A3028 RMK A01 T00170017  RH  100%=      5-min Rain = 0
KCH1 091311Z 03003KT 02/02 A3028 RMK A01 T00150015  RH  100%=      5-min Rain = 0
KCH1 091312Z 03002KT 01/01 A3028 RMK A01 T00140014  RH  100%=      5-min Rain = 0
KCH1 091313Z 01001KT 01/01 A3028 RMK A01 T00140014  RH  100%=      5-min Rain = 0
KCH1 091314Z 02002KT 02/02 A3028 RMK A01 T00150015  RH  100%=      5-min Rain = 0
KCH1 091315Z 01002KT 02/02 A3028 RMK A01 T00160016  RH  100%=      5-min Rain = 0
KCH1 091316Z 01003KT 02/02 A3028 RMK A01 T00170017  RH  100%=      5-min Rain = 0
KCH1 091317Z 35003KT 02/02 A3028 RMK A01 T00170017  RH  100%=      5-min Rain = 0
KCH1 091318Z 34003KT 02/02 A3028 RMK A01 T00180018  RH  100%=      5-min Rain = 0
KCH1 091319Z 34004KT 02/02 A3028 RMK A01 T00180018  RH  100%=      5-min Rain = 0
KCH1 091320Z 34004KT 02/02 A3028 RMK A01 T00190019  RH  100%=      5-min Rain = 0
KCH1 091321Z 34004KT 02/02 A3028 RMK A01 T00190019  RH  100%=      5-min Rain = 0
KCH1 091322Z 33004KT 02/02 A3028 RMK A01 T00200020  RH  100%=      5-min Rain = 0
KCH1 091323Z 33004KT 02/02 A3028 RMK A01 T00210021  RH  100%=      5-min Rain = 0
KCH1 091324Z 33004KT 02/02 A3028 RMK A01 T00220022  RH  100%=      5-min Rain = 0
KCH1 091325Z 33003KT 02/02 A3028 RMK A01 T00230023  RH  100%=      5-min Rain = 0
KCH1 091326Z 32003KT 02/02 A3028 RMK A01 T00240024  RH  100%=      5-min Rain = 0
KCH1 091327Z 32003KT 03/03 A3028 RMK A01 T00250025  RH  100%=      5-min Rain = 0
KCH1 091328Z 31002KT 03/03 A3028 RMK A01 T00260026  RH  100%=      5-min Rain = 0
KCH1 091329Z 31003KT 03/03 A3028 RMK A01 T00270027  RH  100%=      5-min Rain = 0
KCH1 091330Z 31003KT 03/03 A3028 RMK A01 T00290029  RH  100%=      5-min Rain = 0
KCH1 091331Z 31003KT 03/03 A3028 RMK A01 T00300030  RH  100%=      5-min Rain = 0
KCH1 091332Z 31003KT 03/03 A3028 RMK A01 T00300030  RH  100%=      5-min Rain = 0
KCH1 091333Z 31003KT 03/03 A3028 RMK A01 T00310031  RH  100%=      5-min Rain = 0
KCH1 091334Z 31003KT 03/03 A3028 RMK A01 T00330033  RH  100%=      5-min Rain = 0
KCH1 091335Z 31003KT 04/04 A3028 RMK A01 T00350035  RH  100%=      5-min Rain = 0
KCH1 091336Z 31003KT 04/04 A3029 RMK A01 T00370037  RH  100%=      5-min Rain = 0
KCH1 091337Z 31003KT 04/04 A3029 RMK A01 T00390039  RH  100%=      5-min Rain = 0
KCH1 091338Z 31003KT 04/04 A3029 RMK A01 T00390039  RH  100%=      5-min Rain = 0
KCH1 091339Z 31003KT 04/04 A3029 RMK A01 T00400040  RH  100%=      5-min Rain = 0
KCH1 091340Z 31003KT 04/04 A3029 RMK A01 T00400040  RH  100%=      5-min Rain = 0
KCH1 091341Z 32003KT 04/04 A3029 RMK A01 T00410041  RH  100%=      5-min Rain = 0
KCH1 091342Z 33003KT 04/04 A3029 RMK A01 T00410041  RH  100%=      5-min Rain = 0
KCH1 091343Z 33002KT 04/04 A3029 RMK A01 T00420042  RH  100%=      5-min Rain = 0
KCH1 091344Z 33003KT 04/04 A3029 RMK A01 T00430043  RH  100%=      5-min Rain = 0
KCH1 091345Z 33002KT 04/04 A3029 RMK A01 T00430043  RH  100%=      5-min Rain = 0
KCH1 091346Z 33002KT 04/04 A3029 RMK A01 T00440044  RH  100%=      5-min Rain = 0
KCH1 091347Z 33002KT 04/04 A3029 RMK A01 T00440044  RH  100%=      5-min Rain = 0
KCH1 091348Z 32002KT 04/04 A3029 RMK A01 T00440044  RH  100%=      5-min Rain = 0
KCH1 091349Z 32002KT 05/05 A3029 RMK A01 T00450045  RH  100%=      5-min Rain = 0
KCH1 091350Z 32003KT 05/05 A3029 RMK A01 T00450045  RH  100%=      5-min Rain = 0
KCH1 091351Z 31002KT 05/05 A3029 RMK A01 T00450046  RH  100%=      5-min Rain = 0
KCH1 091352Z 32003KT 05/05 A3029 RMK A01 T00460046  RH  100%=      5-min Rain = 0
KCH1 091353Z 32003KT 05/05 A3029 RMK A01 T00470047  RH  100%=      5-min Rain = 0
KCH1 091354Z 33003KT 05/05 A3029 RMK A01 T00480048  RH  100%=      5-min Rain = 0
KCH1 091355Z 33002KT 05/05 A3029 RMK A01 T00480048  RH  100%=      5-min Rain = 0
KCH1 091356Z 33004KT 05/05 A3029 RMK A01 T00490049  RH  100%=      5-min Rain = 0
KCH1 091357Z 32003KT 05/05 A3029 RMK A01 T00490049  RH  100%=      5-min Rain = 0
KCH1 091358Z 31003KT 05/05 A3029 RMK A01 T00490049  RH  100%=      5-min Rain = 0
KCH1 091359Z 31002KT 05/05 A3029 RMK A01 T00490049  RH  100%=      5-min Rain = 0
KCH1 091400Z 30002KT 05/05 A3029 RMK A01 T00500050  RH  100%=      5-min Rain = 0
KCH1 091401Z 31002KT 05/05 A3029 RMK A01 T00510051  RH  100%=      5-min Rain = 0
KCH1 091402Z 31002KT 05/05 A3029 RMK A01 T00530053  RH  100%=      5-min Rain = 0
KCH1 091403Z 31002KT 05/05 A3029 RMK A01 T00530053  RH  100%=      5-min Rain = 0
KCH1 091404Z 31002KT 05/05 A3029 RMK A01 T00530053  RH  100%=      5-min Rain = 0
KCH1 091405Z 32002KT 05/05 A3029 RMK A01 T00520052  RH  100%=      5-min Rain = 0
KCH1 091406Z 32003KT 05/05 A3029 RMK A01 T00520052  RH  100%=      5-min Rain = 0
KCH1 091407Z 33002KT 05/05 A3029 RMK A01 T00510051  RH  100%=      5-min Rain = 0
KCH1 091408Z 34002KT 05/05 A3029 RMK A01 T00510051  RH  100%=      5-min Rain = 0
KCH1 091409Z 33003KT 05/05 A3029 RMK A01 T00520052  RH  100%=      5-min Rain = 0
KCH1 091410Z 32002KT 05/05 A3029 RMK A01 T00520052  RH  100%=      5-min Rain = 0
KCH1 091411Z 32001KT 05/05 A3029 RMK A01 T00520052  RH  100%=      5-min Rain = 0
KCH1 091412Z 32002KT 05/05 A3029 RMK A01 T00520052  RH  100%=      5-min Rain = 0
KCH1 091413Z 31002KT 05/05 A3029 RMK A01 T00530053  RH  100%=      5-min Rain = 0
KCH1 091414Z 32003KT 05/05 A3029 RMK A01 T00540054  RH  100%=      5-min Rain = 0
KCH1 091415Z 31002KT 05/05 A3029 RMK A01 T00540054  RH  100%=      5-min Rain = 0
KCH1 091416Z 31002KT 05/05 A3029 RMK A01 T00540054  RH  100%=      5-min Rain = 0
KCH1 091417Z 32003KT 05/05 A3029 RMK A01 T00540054  RH  100%=      5-min Rain = 0
KCH1 091418Z 32002KT 06/06 A3029 RMK A01 T00550055  RH  100%=      5-min Rain = 0
KCH1 091419Z 31002KT 06/06 A3029 RMK A01 T00550055  RH  100%=      5-min Rain = 0
KCH1 091420Z 31002KT 06/06 A3029 RMK A01 T00560056  RH  100%=      5-min Rain = 0
KCH1 091421Z 29002KT 06/06 A3029 RMK A01 T00570057  RH  100%=      5-min Rain = 0
KCH1 091422Z 29002KT 06/06 A3029 RMK A01 T00580058  RH  100%=      5-min Rain = 0
KCH1 091423Z 30002KT 06/06 A3029 RMK A01 T00580058  RH  100%=      5-min Rain = 0
KCH1 091424Z 31002KT 06/06 A3029 RMK A01 T00580058  RH  100%=      5-min Rain = 0
KCH1 091425Z 28002KT 06/06 A3029 RMK A01 T00580058  RH  100%=      5-min Rain = 0
KCH1 091426Z 25001KT 06/06 A3029 RMK A01 T00580058  RH  100%=      5-min Rain = 0
KCH1 091427Z 25001KT 06/06 A3029 RMK A01 T00580058  RH  100%=      5-min Rain = 0
KCH1 091428Z 28001KT 06/06 A3029 RMK A01 T00600060  RH  100%=      5-min Rain = 0
KCH1 091429Z 31002KT 06/06 A3029 RMK A01 T00610061  RH  100%=      5-min Rain = 0
KCH1 091430Z 27002KT 06/06 A3029 RMK A01 T00610061  RH  100%=      5-min Rain = 0
KCH1 091431Z 26003KT 06/06 A3029 RMK A01 T00620062  RH  100%=      5-min Rain = 0
KCH1 091432Z 28003KT 06/06 A3029 RMK A01 T00620062  RH  100%=      5-min Rain = 0
KCH1 091433Z 28003KT 06/06 A3029 RMK A01 T00630063  RH  100%=      5-min Rain = 0
KCH1 091434Z 30003KT 06/06 A3029 RMK A01 T00620062  RH  100%=      5-min Rain = 0
KCH1 091435Z 31003KT 06/06 A3029 RMK A01 T00610061  RH  100%=      5-min Rain = 0
KCH1 091436Z 30003KT 06/06 A3029 RMK A01 T00620062  RH  100%=      5-min Rain = 0
KCH1 091437Z 30002KT 06/06 A3029 RMK A01 T00620062  RH  100%=      5-min Rain = 0
KCH1 091438Z 30003KT 06/06 A3029 RMK A01 T00630063  RH  100%=      5-min Rain = 0
KCH1 091439Z 29003KT 06/06 A303 RMK A01 T00640064  RH  100%=      5-min Rain = 0
KCH1 091440Z 30003KT 07/07 A303 RMK A01 T00650065  RH  100%=      5-min Rain = 0
KCH1 091441Z 31004KT 07/07 A303 RMK A01 T00660066  RH  100%=      5-min Rain = 0
KCH1 091442Z 32004KT 07/07 A303 RMK A01 T00660066  RH  100%=      5-min Rain = 0
KCH1 091443Z 32004KT 07/07 A303 RMK A01 T00650065  RH  100%=      5-min Rain = 0
KCH1 091444Z 32004KT 07/07 A303 RMK A01 T00650065  RH  100%=      5-min Rain = 0
KCH1 091445Z 33004KT 07/07 A3029 RMK A01 T00650065  RH  100%=      5-min Rain = 0
KCH1 091446Z 34003KT 07/07 A3029 RMK A01 T00660066  RH  100%=      5-min Rain = 0
KCH1 091447Z 32004KT 07/07 A3029 RMK A01 T00660065  RH  100%=      5-min Rain = 0
KCH1 091448Z 33002KT 07/07 A3029 RMK A01 T00660065  RH  100%=      5-min Rain = 0
KCH1 091449Z 33002KT 07/07 A3029 RMK A01 T00670067  RH  100%=      5-min Rain = 0
KCH1 091450Z 34002KT 07/07 A3029 RMK A01 T00680068  RH  100%=      5-min Rain = 0
KCH1 091451Z 33003KT 07/07 A3029 RMK A01 T00690069  RH  100%=      5-min Rain = 0
KCH1 091452Z 33003KT 07/07 A3029 RMK A01 T00700070  RH  100%=      5-min Rain = 0
KCH1 091453Z 34004KT 07/07 A3029 RMK A01 T00700070  RH  100%=      5-min Rain = 0
KCH1 091454Z 34003KT 07/07 A3029 RMK A01 T00700070  RH  100%=      5-min Rain = 0
KCH1 091455Z 33004KT 07/07 A303 RMK A01 T00700070  RH  100%=      5-min Rain = 0
KCH1 091456Z 33003KT 07/07 A303 RMK A01 T00710070  RH  100%=      5-min Rain = 0
KCH1 091457Z 33004KT 07/07 A303 RMK A01 T00720072  RH  100%=      5-min Rain = 0
KCH1 091458Z 33005KT 07/07 A303 RMK A01 T00730072  RH  100%=      5-min Rain = 0
KCH1 091459Z 33004KT 07/07 A303 RMK A01 T00720072  RH  100%=      5-min Rain = 0
KCH1 091500Z 33003KT 07/07 A303 RMK A01 T00730073  RH  100%=      5-min Rain = 0
KCH1 091501Z 32003KT 07/07 A303 RMK A01 T00740074  RH  100%=      5-min Rain = 0
KCH1 091502Z 31003KT 08/08 A303 RMK A01 T00750075  RH  100%=      5-min Rain = 0
KCH1 091503Z 31003KT 08/07 A303 RMK A01 T00750074  RH  099%=      5-min Rain = 0
KCH1 091504Z 31004KT 08/07 A303 RMK A01 T00760074  RH  099%=      5-min Rain = 0
KCH1 091505Z 29003KT 08/07 A303 RMK A01 T00760074  RH  099%=      5-min Rain = 0
KCH1 091506Z 29004KT 08/08 A303 RMK A01 T00760075  RH  099%=      5-min Rain = 0
KCH1 091507Z 29003KT 08/08 A303 RMK A01 T00770075  RH  099%=      5-min Rain = 0
KCH1 091508Z 28002KT 08/08 A303 RMK A01 T00780076  RH  099%=      5-min Rain = 0
KCH1 091509Z 27002KT 08/08 A303 RMK A01 T00790077  RH  099%=      5-min Rain = 0
KCH1 091510Z 28003KT 08/08 A303 RMK A01 T00800078  RH  099%=      5-min Rain = 0
KCH1 091511Z 28005KT 08/08 A303 RMK A01 T00810078  RH  098%=      5-min Rain = 0
KCH1 091512Z 29004KT 08/08 A303 RMK A01 T00810078  RH  098%=      5-min Rain = 0
KCH1 091513Z 29005KT 08/08 A303 RMK A01 T00810078  RH  098%=      5-min Rain = 0
KCH1 091514Z 30004KT 08/08 A303 RMK A01 T00810077  RH  097%=      5-min Rain = 0
KCH1 091515Z 28003KT 08/08 A303 RMK A01 T00820078  RH  097%=      5-min Rain = 0
KCH1 091516Z 29004KT 08/08 A303 RMK A01 T00840080  RH  097%=      5-min Rain = 0
KCH1 091517Z 29003KT 08/08 A303 RMK A01 T00840080  RH  097%=      5-min Rain = 0
KCH1 091518Z 30004KT 09/08 A303 RMK A01 T00850080  RH  097%=      5-min Rain = 0
KCH1 091519Z 30004KT 09/08 A303 RMK A01 T00850080  RH  097%=      5-min Rain = 0
KCH1 091520Z 30006KT 09/08 A303 RMK A01 T00860080  RH  096%=      5-min Rain = 0
KCH1 091521Z 29006KT 09/08 A303 RMK A01 T00860080  RH  096%=      5-min Rain = 0
KCH1 091522Z 30006KT 09/08 A303 RMK A01 T00860080  RH  096%=      5-min Rain = 0
KCH1 091523Z 30005KT 09/08 A303 RMK A01 T00870080  RH  096%=      5-min Rain = 0
KCH1 091524Z 30004KT 09/08 A303 RMK A01 T00870080  RH  095%=      5-min Rain = 0
KCH1 091525Z 30003KT 09/08 A303 RMK A01 T00880082  RH  096%=      5-min Rain = 0
KCH1 091526Z 30004KT 09/08 A303 RMK A01 T00890082  RH  096%=      5-min Rain = 0
KCH1 091527Z 31004KT 09/08 A303 RMK A01 T00890082  RH  095%=      5-min Rain = 0
KCH1 091528Z 30003KT 09/08 A303 RMK A01 T00900083  RH  095%=      5-min Rain = 0
KCH1 091529Z 31004KT 09/08 A303 RMK A01 T00900083  RH  095%=      5-min Rain = 0
KCH1 091530Z 30004KT 09/08 A303 RMK A01 T00910083  RH  095%=      5-min Rain = 0
KCH1 091531Z 30005KT 09/08 A303 RMK A01 T00910082  RH  094%=      5-min Rain = 0
KCH1 091532Z 29003KT 09/08 A303 RMK A01 T00910083  RH  095%=      5-min Rain = 0
KCH1 091533Z 30003KT 09/09 A303 RMK A01 T00930086  RH  095%=      5-min Rain = 0
KCH1 091534Z 30004KT 09/09 A303 RMK A01 T00940087  RH  095%=      5-min Rain = 0
KCH1 091535Z 30004KT 10/09 A3029 RMK A01 T00950087  RH  095%=      5-min Rain = 0
KCH1 091536Z 30005KT 10/09 A3029 RMK A01 T00950086  RH  094%=      5-min Rain = 0
KCH1 091537Z 30006KT 10/09 A303 RMK A01 T00960086  RH  094%=      5-min Rain = 0
KCH1 091538Z 30005KT 10/09 A303 RMK A01 T00960086  RH  093%=      5-min Rain = 0
KCH1 091539Z 30006KT 10/09 A303 RMK A01 T00960085  RH  093%=      5-min Rain = 0
KCH1 091540Z 30007KT 10/09 A303 RMK A01 T00960085  RH  092%=      5-min Rain = 0
KCH1 091541Z 30006KT 10/08 A303 RMK A01 T00960084  RH  092%=      5-min Rain = 0
KCH1 091542Z 29004KT 10/09 A303 RMK A01 T00970086  RH  093%=      5-min Rain = 0
KCH1 091543Z 28006KT 10/09 A303 RMK A01 T00980089  RH  094%=      5-min Rain = 0
KCH1 091544Z 29006KT 10/09 A303 RMK A01 T00990088  RH  093%=      5-min Rain = 0
KCH1 091545Z 30007KT 10/09 A303 RMK A01 T00990086  RH  092%=      5-min Rain = 0
KCH1 091546Z 30006KT 10/09 A303 RMK A01 T00990087  RH  092%=      5-min Rain = 0
KCH1 091547Z 30005KT 10/09 A303 RMK A01 T00990087  RH  092%=      5-min Rain = 0
KCH1 091548Z 29007KT 10/09 A303 RMK A01 T01000088  RH  092%=      5-min Rain = 0
KCH1 091549Z 30005KT 10/09 A303 RMK A01 T01000087  RH  092%=      5-min Rain = 0
KCH1 091550Z 30003KT 10/09 A303 RMK A01 T01000088  RH  092%=      5-min Rain = 0
KCH1 091551Z 29004KT 10/09 A303 RMK A01 T01010090  RH  093%=      5-min Rain = 0
KCH1 091552Z 30004KT 10/09 A303 RMK A01 T01030091  RH  093%=      5-min Rain = 0
KCH1 091553Z 31004KT 10/09 A303 RMK A01 T01030092  RH  093%=      5-min Rain = 0
KCH1 091554Z 32005KT 10/09 A303 RMK A01 T01040092  RH  093%=      5-min Rain = 0
KCH1 091555Z 32005KT 10/09 A303 RMK A01 T01040092  RH  092%=      5-min Rain = 0
KCH1 091556Z 32006KT 11/09 A303 RMK A01 T01050092  RH  092%=      5-min Rain = 0
KCH1 091557Z 31007KT 11/09 A303 RMK A01 T01050091  RH  091%=      5-min Rain = 0
KCH1 091558Z 31006KT 11/09 A303 RMK A01 T01050091  RH  091%=      5-min Rain = 0
KCH1 091559Z 31005KT 11/09 A303 RMK A01 T01050091  RH  091%=      5-min Rain = 0
KCH1 091600Z 31005KT 11/09 A303 RMK A01 T01050091  RH  091%=      5-min Rain = 0
KCH1 091601Z 31004KT 11/09 A303 RMK A01 T01050092  RH  091%=      5-min Rain = 0
KCH1 091602Z 31004KT 11/10 A303 RMK A01 T01070095  RH  092%=      5-min Rain = 0
KCH1 091603Z 31005KT 11/10 A303 RMK A01 T01080096  RH  093%=      5-min Rain = 0
KCH1 091604Z 31005KT 11/10 A303 RMK A01 T01080095  RH  091%=      5-min Rain = 0
KCH1 091605Z 31004KT 11/10 A303 RMK A01 T01090096  RH  092%=      5-min Rain = 0
KCH1 091606Z 32005KT 11/10 A303 RMK A01 T01100097  RH  092%=      5-min Rain = 0
KCH1 091607Z 32005KT 11/10 A303 RMK A01 T01110098  RH  092%=      5-min Rain = 0
KCH1 091608Z 31004KT 11/10 A303 RMK A01 T01110097  RH  091%=      5-min Rain = 0
KCH1 091609Z 32004KT 11/10 A303 RMK A01 T01110097  RH  091%=      5-min Rain = 0
KCH1 091610Z 31004KT 11/10 A303 RMK A01 T01110097  RH  091%=      5-min Rain = 0
KCH1 091611Z 30005KT 11/10 A303 RMK A01 T01120098  RH  091%=      5-min Rain = 0
KCH1 091612Z 30005KT 11/10 A303 RMK A01 T01120097  RH  090%=      5-min Rain = 0
KCH1 091613Z 31004KT 11/10 A303 RMK A01 T01130097  RH  090%=      5-min Rain = 0
KCH1 091614Z 30004KT 11/10 A303 RMK A01 T01130098  RH  090%=      5-min Rain = 0
KCH1 091615Z 30004KT 11/10 A303 RMK A01 T01140099  RH  090%=      5-min Rain = 0
KCH1 091616Z 32004KT 12/10 A3029 RMK A01 T01150099  RH  090%=      5-min Rain = 0
KCH1 091617Z 31003KT 12/10 A3029 RMK A01 T01160101  RH  090%=      5-min Rain = 0
KCH1 091618Z 31003KT 12/10 A3029 RMK A01 T01170102  RH  090%=      5-min Rain = 0
KCH1 091619Z 30005KT 12/10 A3029 RMK A01 T01180101  RH  089%=      5-min Rain = 0
KCH1 091620Z 31003KT 12/10 A3029 RMK A01 T01180100  RH  089%=      5-min Rain = 0
KCH1 091621Z 31003KT 12/10 A3029 RMK A01 T01190102  RH  090%=      5-min Rain = 0
KCH1 091622Z 31004KT 12/10 A3029 RMK A01 T01200104  RH  090%=      5-min Rain = 0
KCH1 091623Z 32004KT 12/10 A3029 RMK A01 T01210102  RH  088%=      5-min Rain = 0
KCH1 091624Z 30005KT 12/10 A3029 RMK A01 T01210102  RH  088%=      5-min Rain = 0
KCH1 091625Z 31004KT 12/10 A3029 RMK A01 T01220102  RH  088%=      5-min Rain = 0
KCH1 091626Z 32005KT 12/10 A3029 RMK A01 T01210101  RH  087%=      5-min Rain = 0
KCH1 091627Z 32005KT 12/10 A3029 RMK A01 T01220103  RH  088%=      5-min Rain = 0
KCH1 091628Z 31004KT 12/10 A3029 RMK A01 T01230103  RH  088%=      5-min Rain = 0
KCH1 091629Z 31005KT 13/11 A3029 RMK A01 T01250105  RH  087%=      5-min Rain = 0
KCH1 091630Z 31006KT 13/10 A3029 RMK A01 T01260104  RH  086%=      5-min Rain = 0
KCH1 091631Z 32006KT 13/10 A3029 RMK A01 T01260103  RH  086%=      5-min Rain = 0
KCH1 091632Z 32005KT 13/11 A3029 RMK A01 T01280107  RH  087%=      5-min Rain = 0
KCH1 091633Z 32005KT 13/11 A3028 RMK A01 T01300107  RH  086%=      5-min Rain = 0
KCH1 091634Z 31004KT 13/11 A3028 RMK A01 T01320110  RH  086%=      5-min Rain = 0
KCH1 091635Z 31006KT 14/11 A3028 RMK A01 T01350110  RH  085%=      5-min Rain = 0
KCH1 091636Z 32005KT 14/11 A3028 RMK A01 T01350107  RH  083%=      5-min Rain = 0
KCH1 091637Z 31005KT 14/11 A3028 RMK A01 T01350109  RH  084%=      5-min Rain = 0
KCH1 091638Z 30006KT 14/11 A3028 RMK A01 T01360109  RH  084%=      5-min Rain = 0
KCH1 091639Z 30005KT 14/11 A3028 RMK A01 T01370110  RH  084%=      5-min Rain = 0
KCH1 091640Z 29005KT 14/11 A3028 RMK A01 T01380110  RH  083%=      5-min Rain = 0
KCH1 091641Z 30005KT 14/11 A3028 RMK A01 T01390110  RH  083%=      5-min Rain = 0
KCH1 091642Z 30004KT 14/11 A3028 RMK A01 T01390109  RH  082%=      5-min Rain = 0
KCH1 091643Z 31005KT 14/11 A3028 RMK A01 T01390112  RH  083%=      5-min Rain = 0
KCH1 091644Z 31004KT 14/11 A3028 RMK A01 T01410111  RH  082%=      5-min Rain = 0
KCH1 091645Z 32003KT 14/11 A3028 RMK A01 T01420113  RH  082%=      5-min Rain = 0
KCH1 091646Z 33006KT 14/11 A3028 RMK A01 T01440114  RH  082%=      5-min Rain = 0
KCH1 091647Z 31006KT 15/11 A3028 RMK A01 T01450111  RH  080%=      5-min Rain = 0
KCH1 091648Z 32006KT 14/11 A3028 RMK A01 T01430111  RH  081%=      5-min Rain = 0
KCH1 091649Z 32005KT 14/11 A3028 RMK A01 T01440114  RH  082%=      5-min Rain = 0
KCH1 091650Z 31007KT 15/11 A3028 RMK A01 T01460113  RH  081%=      5-min Rain = 0
KCH1 091651Z 31004KT 15/11 A3028 RMK A01 T01450112  RH  081%=      5-min Rain = 0
KCH1 091652Z 30003KT 14/11 A3028 RMK A01 T01440113  RH  081%=      5-min Rain = 0
KCH1 091653Z 31005KT 15/12 A3028 RMK A01 T01460116  RH  082%=      5-min Rain = 0
KCH1 091654Z 32006KT 15/11 A3028 RMK A01 T01480114  RH  080%=      5-min Rain = 0
KCH1 091655Z 32005KT 15/11 A3028 RMK A01 T01470113  RH  080%=      5-min Rain = 0
KCH1 091656Z 31004KT 15/11 A3028 RMK A01 T01460114  RH  081%=      5-min Rain = 0
KCH1 091657Z 33003KT 15/12 A3028 RMK A01 T01480117  RH  082%=      5-min Rain = 0
KCH1 091658Z 32006KT 15/12 A3028 RMK A01 T01490116  RH  081%=      5-min Rain = 0
KCH1 091659Z 31007KT 15/12 A3028 RMK A01 T01490116  RH  080%=      5-min Rain = 0
KCH1 091700Z 29004KT 15/12 A3027 RMK A01 T01490117  RH  081%=      5-min Rain = 0
KCH1 091701Z 28006KT 15/12 A3027 RMK A01 T01510119  RH  081%=      5-min Rain = 0
KCH1 091702Z 28007KT 15/12 A3027 RMK A01 T01520118  RH  080%=      5-min Rain = 0
KCH1 091703Z 27009KT 15/12 A3027 RMK A01 T01530119  RH  080%=      5-min Rain = 0
KCH1 091704Z 26008KT 15/12 A3027 RMK A01 T01540119  RH  080%=      5-min Rain = 0
KCH1 091705Z 28007KT 16/12 A3027 RMK A01 T01560120  RH  079%=      5-min Rain = 0
KCH1 091706Z 28008KT 16/12 A3027 RMK A01 T01560117  RH  078%=      5-min Rain = 0
KCH1 091707Z 25009KT 15/12 A3027 RMK A01 T01540117  RH  078%=      5-min Rain = 0
KCH1 091708Z 25006KT 15/12 A3027 RMK A01 T01540118  RH  079%=      5-min Rain = 0
KCH1 091709Z 25005KT 16/12 A3027 RMK A01 T01550118  RH  079%=      5-min Rain = 0
KCH1 091710Z 25006KT 16/12 A3027 RMK A01 T01570118  RH  078%=      5-min Rain = 0
KCH1 091711Z 24007KT 16/12 A3027 RMK A01 T01580118  RH  077%=      5-min Rain = 0
KCH1 091712Z 23006KT 16/12 A3027 RMK A01 T01590118  RH  077%=      5-min Rain = 0
KCH1 091713Z 22006KT 16/12 A3027 RMK A01 T01600118  RH  076%=      5-min Rain = 0
KCH1 091714Z 24003KT 16/12 A3027 RMK A01 T01620119  RH  076%=      5-min Rain = 0
KCH1 091715Z 25006KT 17/12 A3027 RMK A01 T01650122  RH  076%=      5-min Rain = 0
KCH1 091716Z 25006KT 17/12 A3027 RMK A01 T01680121  RH  074%=      5-min Rain = 0
KCH1 091717Z 25004KT 17/12 A3027 RMK A01 T01680120  RH  073%=      5-min Rain = 0
KCH1 091718Z 24006KT 17/12 A3027 RMK A01 T01690121  RH  073%=      5-min Rain = 0
KCH1 091719Z 25006KT 17/12 A3027 RMK A01 T01710119  RH  072%=      5-min Rain = 0
KCH1 091720Z 26007KT 17/12 A3027 RMK A01 T01710120  RH  072%=      5-min Rain = 0
KCH1 091721Z 27006KT 17/12 A3027 RMK A01 T01700120  RH  072%=      5-min Rain = 0
KCH1 091722Z 29007KT 17/12 A3027 RMK A01 T01700121  RH  073%=      5-min Rain = 0
KCH1 091723Z 26007KT 17/12 A3027 RMK A01 T01700120  RH  072%=      5-min Rain = 0
KCH1 091724Z 26006KT 17/12 A3027 RMK A01 T01690119  RH  072%=      5-min Rain = 0
KCH1 091725Z 27007KT 17/12 A3027 RMK A01 T01670118  RH  073%=      5-min Rain = 0
KCH1 091726Z 27008KT 16/12 A3027 RMK A01 T01640118  RH  074%=      5-min Rain = 0
KCH1 091727Z 26008KT 16/12 A3027 RMK A01 T01620116  RH  074%=      5-min Rain = 0
KCH1 091728Z 26007KT 16/12 A3027 RMK A01 T01610118  RH  076%=      5-min Rain = 0
KCH1 091729Z 25007KT 16/12 A3027 RMK A01 T01620117  RH  075%=      5-min Rain = 0
KCH1 091730Z 28005KT 16/12 A3027 RMK A01 T01610118  RH  076%=      5-min Rain = 0
KCH1 091731Z 28006KT 16/12 A3027 RMK A01 T01610119  RH  076%=      5-min Rain = 0
KCH1 091732Z 26008KT 16/12 A3027 RMK A01 T01620120  RH  076%=      5-min Rain = 0
KCH1 091733Z 27008KT 16/12 A3027 RMK A01 T01620119  RH  075%=      5-min Rain = 0
KCH1 091734Z 26007KT 16/12 A3027 RMK A01 T01610119  RH  076%=      5-min Rain = 0
KCH1 091735Z 27007KT 16/12 A3027 RMK A01 T01610119  RH  076%=      5-min Rain = 0
KCH1 091736Z 28008KT 16/12 A3027 RMK A01 T01600119  RH  077%=      5-min Rain = 0
KCH1 091737Z 28006KT 16/12 A3027 RMK A01 T01600119  RH  076%=      5-min Rain = 0
KCH1 091738Z 27006KT 16/12 A3027 RMK A01 T01620121  RH  077%=      5-min Rain = 0
KCH1 091739Z 28008KT 16/12 A3026 RMK A01 T01630121  RH  076%=      5-min Rain = 0
KCH1 091740Z 27006KT 16/12 A3026 RMK A01 T01640120  RH  075%=      5-min Rain = 0
KCH1 091741Z 27007KT 16/12 A3026 RMK A01 T01640120  RH  075%=      5-min Rain = 0
KCH1 091742Z 26005KT 16/12 A3026 RMK A01 T01630120  RH  075%=      5-min Rain = 0
KCH1 091743Z 27006KT 16/12 A3026 RMK A01 T01630120  RH  075%=      5-min Rain = 0
KCH1 091744Z 24008KT 16/12 A3026 RMK A01 T01640120  RH  075%=      5-min Rain = 0
KCH1 091745Z 27009KT 16/12 A3026 RMK A01 T01630118  RH  075%=      5-min Rain = 0
KCH1 091746Z 26008KT 16/12 A3026 RMK A01 T01620118  RH  075%=      5-min Rain = 0
KCH1 091747Z 27011KT 16/12 A3026 RMK A01 T01610119  RH  076%=      5-min Rain = 0
KCH1 091748Z 28009KT 16/12 A3026 RMK A01 T01620119  RH  075%=      5-min Rain = 0
KCH1 091749Z 28008KT 16/12 A3026 RMK A01 T01620118  RH  075%=      5-min Rain = 0
KCH1 091750Z 29010KT 16/12 A3026 RMK A01 T01620119  RH  075%=      5-min Rain = 0
KCH1 091751Z 29008KT 16/12 A3026 RMK A01 T01620118  RH  075%=      5-min Rain = 0
KCH1 091752Z 29009KT 16/12 A3026 RMK A01 T01600117  RH  076%=      5-min Rain = 0
KCH1 091753Z 29007KT 16/12 A3026 RMK A01 T01590117  RH  076%=      5-min Rain = 0
KCH1 091754Z 27005KT 16/12 A3026 RMK A01 T01590119  RH  077%=      5-min Rain = 0
KCH1 091755Z 26007KT 16/12 A3026 RMK A01 T01610120  RH  076%=      5-min Rain = 0
KCH1 091756Z 25006KT 16/12 A3026 RMK A01 T01610118  RH  076%=      5-min Rain = 0
KCH1 091757Z 25003KT 16/12 A3026 RMK A01 T01620120  RH  076%=      5-min Rain = 0
KCH1 091758Z 25004KT 16/12 A3026 RMK A01 T01630120  RH  076%=      5-min Rain = 0
KCH1 091759Z 25007KT 17/12 A3026 RMK A01 T01650120  RH  075%=      5-min Rain = 0
KCH1 091800Z 26005KT 16/12 A3026 RMK A01 T01640119  RH  074%=      5-min Rain = 0
KCH1 091801Z 26005KT 16/12 A3026 RMK A01 T01640120  RH  075%=      5-min Rain = 0
KCH1 091802Z 25006KT 17/12 A3025 RMK A01 T01650119  RH  074%=      5-min Rain = 0
KCH1 091803Z 26009KT 16/12 A3025 RMK A01 T01630118  RH  075%=      5-min Rain = 0
KCH1 091804Z 27006KT 16/12 A3025 RMK A01 T01630118  RH  075%=      5-min Rain = 0
KCH1 091805Z 29005KT 16/12 A3025 RMK A01 T01630120  RH  076%=      5-min Rain = 0
KCH1 091806Z 28007KT 17/12 A3025 RMK A01 T01680123  RH  075%=      5-min Rain = 0
KCH1 091807Z 28008KT 17/12 A3025 RMK A01 T01710122  RH  073%=      5-min Rain = 0
KCH1 091808Z 23004KT 17/12 A3025 RMK A01 T01710120  RH  072%=      5-min Rain = 0
KCH1 091809Z 26007KT 17/12 A3025 RMK A01 T01710120  RH  072%=      5-min Rain = 0
KCH1 091810Z 28007KT 17/12 A3025 RMK A01 T01710120  RH  072%=      5-min Rain = 0
KCH1 091811Z 28007KT 17/12 A3025 RMK A01 T01690118  RH  072%=      5-min Rain = 0
KCH1 091812Z 28006KT 17/12 A3025 RMK A01 T01670119  RH  073%=      5-min Rain = 0
KCH1 091813Z 27006KT 17/12 A3025 RMK A01 T01690122  RH  074%=      5-min Rain = 0
KCH1 091814Z 27008KT 17/12 A3025 RMK A01 T01710121  RH  072%=      5-min Rain = 0
KCH1 091815Z 27006KT 17/12 A3025 RMK A01 T01700120  RH  072%=      5-min Rain = 0
KCH1 091816Z 26007KT 17/12 A3025 RMK A01 T01690122  RH  073%=      5-min Rain = 0
KCH1 091817Z 28005KT 17/12 A3025 RMK A01 T01710121  RH  072%=      5-min Rain = 0
KCH1 091818Z 29007KT 17/12 A3024 RMK A01 T01710119  RH  072%=      5-min Rain = 0
KCH1 091819Z 29006KT 17/12 A3024 RMK A01 T01680119  RH  073%=      5-min Rain = 0
KCH1 091820Z 29008KT 17/12 A3024 RMK A01 T01680121  RH  073%=      5-min Rain = 0
KCH1 091821Z 30009KT 17/12 A3024 RMK A01 T01690120  RH  073%=      5-min Rain = 0
KCH1 091822Z 28006KT 17/12 A3024 RMK A01 T01680119  RH  073%=      5-min Rain = 0
KCH1 091823Z 26005KT 17/12 A3024 RMK A01 T01680121  RH  074%=      5-min Rain = 0
KCH1 091824Z 28007KT 17/12 A3024 RMK A01 T01700121  RH  073%=      5-min Rain = 0
KCH1 091825Z 28008KT 17/12 A3024 RMK A01 T01720122  RH  073%=      5-min Rain = 0
KCH1 091826Z 27008KT 17/12 A3024 RMK A01 T01730122  RH  072%=      5-min Rain = 0
KCH1 091827Z 27009KT 17/12 A3024 RMK A01 T01730121  RH  071%=      5-min Rain = 0
KCH1 091828Z 28009KT 17/12 A3024 RMK A01 T01720120  RH  071%=      5-min Rain = 0
KCH1 091829Z 27006KT 17/12 A3024 RMK A01 T01700120  RH  072%=      5-min Rain = 0
KCH1 091830Z 28006KT 17/12 A3024 RMK A01 T01710121  RH  073%=      5-min Rain = 0
KCH1 091831Z 30006KT 17/12 A3024 RMK A01 T01720121  RH  072%=      5-min Rain = 0
KCH1 091832Z 30006KT 17/12 A3024 RMK A01 T01730122  RH  072%=      5-min Rain = 0
KCH1 091833Z 29006KT 18/12 A3024 RMK A01 T01750122  RH  071%=      5-min Rain = 0
KCH1 091834Z 29007KT 18/12 A3023 RMK A01 T01750120  RH  070%=      5-min Rain = 0
KCH1 091835Z 31007KT 17/12 A3023 RMK A01 T01720119  RH  071%=      5-min Rain = 0
KCH1 091836Z 29007KT 17/12 A3023 RMK A01 T01710120  RH  072%=      5-min Rain = 0
KCH1 091837Z 29006KT 17/12 A3023 RMK A01 T01720121  RH  072%=      5-min Rain = 0
KCH1 091838Z 30005KT 17/12 A3023 RMK A01 T01740122  RH  072%=      5-min Rain = 0
KCH1 091839Z 28007KT 18/12 A3023 RMK A01 T01750122  RH  071%=      5-min Rain = 0
KCH1 091840Z 27008KT 18/12 A3023 RMK A01 T01760123  RH  071%=      5-min Rain = 0
KCH1 091841Z 28009KT 18/12 A3023 RMK A01 T01770123  RH  071%=      5-min Rain = 0
KCH1 091842Z 29009KT 18/12 A3023 RMK A01 T01770120  RH  069%=      5-min Rain = 0
KCH1 091843Z 28007KT 17/12 A3023 RMK A01 T01740121  RH  071%=      5-min Rain = 0
KCH1 091844Z 30008KT 17/12 A3023 RMK A01 T01740120  RH  071%=      5-min Rain = 0
KCH1 091845Z 30004KT 17/12 A3022 RMK A01 T01730121  RH  071%=      5-min Rain = 0
KCH1 091846Z 29005KT 17/12 A3022 RMK A01 T01740124  RH  072%=      5-min Rain = 0
KCH1 091847Z 28007KT 18/12 A3022 RMK A01 T01760122  RH  071%=      5-min Rain = 0
KCH1 091848Z 29008KT 18/12 A3022 RMK A01 T01770123  RH  070%=      5-min Rain = 0
KCH1 091849Z 30007KT 18/12 A3022 RMK A01 T01760121  RH  070%=      5-min Rain = 0
KCH1 091850Z 29006KT 18/12 A3022 RMK A01 T01760123  RH  071%=      5-min Rain = 0
KCH1 091851Z 28007KT 18/12 A3022 RMK A01 T01770122  RH  070%=      5-min Rain = 0
KCH1 091852Z 27007KT 18/12 A3022 RMK A01 T01760120  RH  070%=      5-min Rain = 0
KCH1 091853Z 27005KT 17/12 A3022 RMK A01 T01740120  RH  071%=      5-min Rain = 0
KCH1 091854Z 31004KT 17/12 A3022 RMK A01 T01740122  RH  072%=      5-min Rain = 0
KCH1 091855Z 30007KT 18/12 A3022 RMK A01 T01770124  RH  071%=      5-min Rain = 0
KCH1 091856Z 30006KT 18/12 A3022 RMK A01 T01790123  RH  070%=      5-min Rain = 0
KCH1 091857Z 29007KT 18/12 A3022 RMK A01 T01800123  RH  069%=      5-min Rain = 0
KCH1 091858Z 31008KT 18/12 A3022 RMK A01 T01790122  RH  069%=      5-min Rain = 0
KCH1 091859Z 30007KT 18/12 A3022 RMK A01 T01790122  RH  069%=      5-min Rain = 0
KCH1 091900Z 31006KT 18/12 A3022 RMK A01 T01790123  RH  069%=      5-min Rain = 0
KCH1 091901Z 30004KT 18/12 A3022 RMK A01 T01800124  RH  069%=      5-min Rain = 0
KCH1 091902Z 29005KT 18/12 A3022 RMK A01 T01820124  RH  069%=      5-min Rain = 0
KCH1 091903Z 29004KT 18/12 A3022 RMK A01 T01820123  RH  068%=      5-min Rain = 0
KCH1 091904Z 29007KT 18/12 A3021 RMK A01 T01820124  RH  069%=      5-min Rain = 0
KCH1 091905Z 27009KT 18/12 A3021 RMK A01 T01830124  RH  068%=      5-min Rain = 0
KCH1 091906Z 26007KT 18/12 A3021 RMK A01 T01840124  RH  068%=      5-min Rain = 0
KCH1 091907Z 26003KT 19/13 A3021 RMK A01 T01850126  RH  068%=      5-min Rain = 0
KCH1 091908Z 25007KT 19/13 A3021 RMK A01 T01880128  RH  068%=      5-min Rain = 0
KCH1 091909Z 25006KT 19/13 A3021 RMK A01 T01900125  RH  066%=      5-min Rain = 0
KCH1 091910Z 27006KT 19/13 A3021 RMK A01 T01890126  RH  066%=      5-min Rain = 0
KCH1 091911Z 29007KT 19/13 A3021 RMK A01 T01880125  RH  067%=      5-min Rain = 0
KCH1 091912Z 29008KT 19/12 A3021 RMK A01 T01870124  RH  067%=      5-min Rain = 0
KCH1 091913Z 29009KT 19/12 A3021 RMK A01 T01850123  RH  067%=      5-min Rain = 0
KCH1 091914Z 30006KT 18/12 A3021 RMK A01 T01830123  RH  068%=      5-min Rain = 0
KCH1 091915Z 30006KT 18/12 A3021 RMK A01 T01840124  RH  068%=      5-min Rain = 0
KCH1 091916Z 29007KT 18/12 A3021 RMK A01 T01840124  RH  068%=      5-min Rain = 0
KCH1 091917Z 29005KT 19/12 A3021 RMK A01 T01850124  RH  068%=      5-min Rain = 0
KCH1 091918Z 30006KT 19/12 A3021 RMK A01 T01850124  RH  067%=      5-min Rain = 0
KCH1 091919Z 29005KT 19/12 A302 RMK A01 T01850124  RH  067%=      5-min Rain = 0
KCH1 091920Z 29005KT 19/12 A302 RMK A01 T01860124  RH  067%=      5-min Rain = 0
KCH1 091921Z 32006KT 19/13 A302 RMK A01 T01870125  RH  067%=      5-min Rain = 0
KCH1 091922Z 29006KT 19/13 A302 RMK A01 T01880125  RH  067%=      5-min Rain = 0
KCH1 091923Z 29005KT 19/13 A302 RMK A01 T01890126  RH  067%=      5-min Rain = 0
KCH1 091924Z 28006KT 19/12 A302 RMK A01 T01900124  RH  065%=      5-min Rain = 0
KCH1 091925Z 30006KT 19/12 A302 RMK A01 T01890123  RH  066%=      5-min Rain = 0
KCH1 091926Z 30007KT 19/12 A302 RMK A01 T01870124  RH  067%=      5-min Rain = 0
KCH1 091927Z 30006KT 19/12 A302 RMK A01 T01870124  RH  067%=      5-min Rain = 0
KCH1 091928Z 31005KT 19/13 A302 RMK A01 T01880125  RH  067%=      5-min Rain = 0
KCH1 091929Z 30005KT 19/13 A302 RMK A01 T01900126  RH  066%=      5-min Rain = 0
KCH1 091930Z 28007KT 19/13 A302 RMK A01 T01920126  RH  066%=      5-min Rain = 0
KCH1 091931Z 28008KT 19/13 A3019 RMK A01 T01920126  RH  065%=      5-min Rain = 0
KCH1 091932Z 29008KT 19/12 A3019 RMK A01 T01910124  RH  065%=      5-min Rain = 0
KCH1 091933Z 29009KT 19/12 A3019 RMK A01 T01890124  RH  066%=      5-min Rain = 0
KCH1 091934Z 29006KT 19/12 A3019 RMK A01 T01880123  RH  066%=      5-min Rain = 0
KCH1 091935Z 27005KT 19/12 A3019 RMK A01 T01870123  RH  066%=      5-min Rain = 0
KCH1 091936Z 30003KT 19/12 A3019 RMK A01 T01870123  RH  066%=      5-min Rain = 0
KCH1 091937Z 29004KT 19/12 A3019 RMK A01 T01880124  RH  066%=      5-min Rain = 0
KCH1 091938Z 32004KT 19/12 A3019 RMK A01 T01880124  RH  066%=      5-min Rain = 0
KCH1 091939Z 29007KT 19/13 A3019 RMK A01 T01900126  RH  066%=      5-min Rain = 0
KCH1 091940Z 28007KT 19/13 A3019 RMK A01 T01920126  RH  066%=      5-min Rain = 0
KCH1 091941Z 27005KT 19/13 A3019 RMK A01 T01920125  RH  065%=      5-min Rain = 0
KCH1 091942Z 27003KT 19/13 A3019 RMK A01 T01920125  RH  065%=      5-min Rain = 0
KCH1 091943Z 30004KT 19/13 A3019 RMK A01 T01920126  RH  065%=      5-min Rain = 0
KCH1 091944Z 30006KT 19/13 A3019 RMK A01 T01930125  RH  065%=      5-min Rain = 0
KCH1 091945Z 30005KT 19/13 A3019 RMK A01 T01920125  RH  065%=      5-min Rain = 0
KCH1 091946Z 28003KT 19/13 A3019 RMK A01 T01930127  RH  065%=      5-min Rain = 0
KCH1 091947Z 29005KT 19/13 A3018 RMK A01 T01940126  RH  065%=      5-min Rain = 0
KCH1 091948Z 28006KT 20/13 A3018 RMK A01 T01950127  RH  065%=      5-min Rain = 0
KCH1 091949Z 28006KT 20/13 A3018 RMK A01 T01960127  RH  064%=      5-min Rain = 0
KCH1 091950Z 28007KT 20/13 A3018 RMK A01 T01960126  RH  064%=      5-min Rain = 0
KCH1 091951Z 27005KT 19/12 A3018 RMK A01 T01940124  RH  064%=      5-min Rain = 0
KCH1 091952Z 28006KT 19/13 A3018 RMK A01 T01930125  RH  065%=      5-min Rain = 0
KCH1 091953Z 31005KT 19/13 A3018 RMK A01 T01930125  RH  065%=      5-min Rain = 0
KCH1 091954Z 30007KT 19/13 A3018 RMK A01 T01930127  RH  065%=      5-min Rain = 0
KCH1 091955Z 28006KT 20/13 A3018 RMK A01 T01950125  RH  064%=      5-min Rain = 0
KCH1 091956Z 29006KT 20/13 A3018 RMK A01 T01950126  RH  064%=      5-min Rain = 0
KCH1 091957Z 31006KT 20/13 A3018 RMK A01 T01970126  RH  064%=      5-min Rain = 0
KCH1 091958Z 29004KT 20/13 A3018 RMK A01 T01970127  RH  064%=      5-min Rain = 0
KCH1 091959Z 28004KT 20/13 A3018 RMK A01 T01980126  RH  063%=      5-min Rain = 0
KCH1 092000Z 30006KT 20/13 A3018 RMK A01 T01980127  RH  063%=      5-min Rain = 0
KCH1 092001Z 29006KT 20/13 A3018 RMK A01 T01990127  RH  063%=      5-min Rain = 0
KCH1 092002Z 28006KT 20/13 A3018 RMK A01 T01990126  RH  063%=      5-min Rain = 0
KCH1 092003Z 31005KT 20/13 A3018 RMK A01 T01990127  RH  063%=      5-min Rain = 0
KCH1 092004Z 29007KT 20/13 A3018 RMK A01 T02000128  RH  063%=      5-min Rain = 0
KCH1 092005Z 29005KT 20/13 A3018 RMK A01 T02010126  RH  062%=      5-min Rain = 0
KCH1 092006Z 27005KT 20/13 A3018 RMK A01 T02000126  RH  062%=      5-min Rain = 0
KCH1 092007Z 30004KT 20/13 A3018 RMK A01 T02000127  RH  063%=      5-min Rain = 0
KCH1 092008Z 31004KT 20/13 A3018 RMK A01 T02020130  RH  063%=      5-min Rain = 0
KCH1 092009Z 31004KT 20/13 A3017 RMK A01 T02030126  RH  061%=      5-min Rain = 0
KCH1 092010Z 30005KT 20/13 A3017 RMK A01 T02030129  RH  062%=      5-min Rain = 0
KCH1 092011Z 30005KT 20/13 A3017 RMK A01 T02030125  RH  061%=      5-min Rain = 0
KCH1 092012Z 29004KT 20/13 A3017 RMK A01 T02030128  RH  062%=      5-min Rain = 0
KCH1 092013Z 30006KT 20/13 A3017 RMK A01 T02040126  RH  061%=      5-min Rain = 0
KCH1 092014Z 27005KT 20/12 A3017 RMK A01 T02030124  RH  061%=      5-min Rain = 0
KCH1 092015Z 27005KT 20/12 A3017 RMK A01 T02010124  RH  061%=      5-min Rain = 0
KCH1 092016Z 31005KT 20/13 A3017 RMK A01 T02020126  RH  062%=      5-min Rain = 0
KCH1 092017Z 29006KT 20/13 A3017 RMK A01 T02030127  RH  062%=      5-min Rain = 0
KCH1 092018Z 27007KT 21/13 A3017 RMK A01 T02050126  RH  061%=      5-min Rain = 0
KCH1 092019Z 27004KT 20/13 A3017 RMK A01 T02040125  RH  061%=      5-min Rain = 0
KCH1 092020Z 27004KT 20/13 A3017 RMK A01 T02030128  RH  062%=      5-min Rain = 0
KCH1 092021Z 25005KT 20/13 A3017 RMK A01 T02030126  RH  061%=      5-min Rain = 0
KCH1 092022Z 26004KT 20/13 A3017 RMK A01 T02030126  RH  061%=      5-min Rain = 0
KCH1 092023Z 23003KT 20/13 A3017 RMK A01 T02030128  RH  062%=      5-min Rain = 0
KCH1 092024Z 21002KT 21/13 A3017 RMK A01 T02050129  RH  062%=      5-min Rain = 0
KCH1 092025Z 26002KT 21/13 A3017 RMK A01 T02060127  RH  060%=      5-min Rain = 0
KCH1 092026Z 23003KT 21/13 A3017 RMK A01 T02080126  RH  059%=      5-min Rain = 0
KCH1 092027Z 24004KT 21/13 A3017 RMK A01 T02080127  RH  059%=      5-min Rain = 0
KCH1 092028Z 24005KT 21/13 A3017 RMK A01 T02100127  RH  059%=      5-min Rain = 0
KCH1 092029Z 25006KT 21/13 A3017 RMK A01 T02100128  RH  059%=      5-min Rain = 0
KCH1 092030Z 26007KT 21/13 A3017 RMK A01 T02110125  RH  058%=      5-min Rain = 0
KCH1 092031Z 28007KT 21/13 A3017 RMK A01 T02110125  RH  058%=      5-min Rain = 0
KCH1 092032Z 28006KT 21/12 A3017 RMK A01 T02090121  RH  057%=      5-min Rain = 0
KCH1 092033Z 24006KT 21/12 A3017 RMK A01 T02080122  RH  058%=      5-min Rain = 0
KCH1 092034Z 24003KT 21/12 A3017 RMK A01 T02070122  RH  058%=      5-min Rain = 0
KCH1 092035Z 22005KT 21/12 A3017 RMK A01 T02090120  RH  057%=      5-min Rain = 0
KCH1 092036Z 23003KT 21/12 A3017 RMK A01 T02080120  RH  057%=      5-min Rain = 0
KCH1 092037Z 24002KT 21/12 A3017 RMK A01 T02080121  RH  057%=      5-min Rain = 0
KCH1 092038Z 16002KT 21/12 A3017 RMK A01 T02080122  RH  058%=      5-min Rain = 0
KCH1 092039Z 24002KT 21/12 A3017 RMK A01 T02090124  RH  058%=      5-min Rain = 0
KCH1 092040Z 25004KT 21/13 A3017 RMK A01 T02110126  RH  058%=      5-min Rain = 0
KCH1 092041Z 28005KT 21/13 A3016 RMK A01 T02140129  RH  058%=      5-min Rain = 0
KCH1 092042Z 29006KT 22/13 A3017 RMK A01 T02150126  RH  057%=      5-min Rain = 0
KCH1 092043Z 25003KT 21/12 A3017 RMK A01 T02130123  RH  057%=      5-min Rain = 0
KCH1 092044Z 26004KT 21/12 A3017 RMK A01 T02110124  RH  057%=      5-min Rain = 0
KCH1 092045Z 25005KT 21/13 A3017 RMK A01 T02110125  RH  058%=      5-min Rain = 0
KCH1 092046Z 22002KT 21/13 A3017 RMK A01 T02120128  RH  058%=      5-min Rain = 0
KCH1 092047Z 19003KT 22/13 A3017 RMK A01 T02150125  RH  056%=      5-min Rain = 0
KCH1 092048Z 25003KT 22/12 A3016 RMK A01 T02160124  RH  056%=      5-min Rain = 0
KCH1 092049Z 26004KT 22/12 A3016 RMK A01 T02170124  RH  055%=      5-min Rain = 0
KCH1 092050Z 21005KT 22/13 A3016 RMK A01 T02170125  RH  056%=      5-min Rain = 0
KCH1 092051Z 22007KT 22/12 A3016 RMK A01 T02180124  RH  055%=      5-min Rain = 0
KCH1 092052Z 23005KT 22/13 A3016 RMK A01 T02170125  RH  056%=      5-min Rain = 0
KCH1 092053Z 24004KT 22/12 A3016 RMK A01 T02150123  RH  056%=      5-min Rain = 0
KCH1 092054Z 25003KT 21/12 A3016 RMK A01 T02130123  RH  056%=      5-min Rain = 0
KCH1 092055Z 24004KT 21/13 A3016 RMK A01 T02140125  RH  057%=      5-min Rain = 0
KCH1 092056Z 26004KT 21/12 A3016 RMK A01 T02140123  RH  056%=      5-min Rain = 0
KCH1 092057Z 25005KT 21/12 A3016 RMK A01 T02140123  RH  056%=      5-min Rain = 0
KCH1 092058Z 25004KT 21/12 A3016 RMK A01 T02140122  RH  056%=      5-min Rain = 0
KCH1 092059Z 24005G10KT 22/12 A3016 RMK A01 T02150124  RH  056%=      5-min Rain = 0
KCH1 092100Z 24007KT 22/12 A3016 RMK A01 T02170122  RH  055%=      5-min Rain = 0
KCH1 092101Z 24007KT 22/12 A3016 RMK A01 T02170122  RH  055%=      5-min Rain = 0
KCH1 092102Z 23007KT 22/12 A3016 RMK A01 T02170124  RH  055%=      5-min Rain = 0
KCH1 092103Z 24006KT 22/12 A3016 RMK A01 T02170121  RH  054%=      5-min Rain = 0
KCH1 092104Z 24007KT 22/12 A3016 RMK A01 T02170121  RH  055%=      5-min Rain = 0
KCH1 092105Z 23005KT 22/12 A3016 RMK A01 T02160119  RH  054%=      5-min Rain = 0
KCH1 092106Z 26003KT 21/12 A3016 RMK A01 T02130119  RH  055%=      5-min Rain = 0
KCH1 092107Z 24003KT 21/12 A3016 RMK A01 T02130120  RH  056%=      5-min Rain = 0
KCH1 092108Z 22004KT 22/12 A3016 RMK A01 T02150121  RH  055%=      5-min Rain = 0
KCH1 092109Z 25004KT 22/12 A3016 RMK A01 T02160119  RH  054%=      5-min Rain = 0
KCH1 092110Z 25005KT 22/12 A3016 RMK A01 T02160121  RH  054%=      5-min Rain = 0
KCH1 092111Z 22005KT 22/12 A3016 RMK A01 T02170122  RH  055%=      5-min Rain = 0
KCH1 092112Z 22006KT 22/12 A3016 RMK A01 T02170121  RH  054%=      5-min Rain = 0
KCH1 092113Z 20007KT 22/12 A3016 RMK A01 T02170121  RH  054%=      5-min Rain = 0
KCH1 092114Z 20007KT 22/12 A3015 RMK A01 T02160121  RH  055%=      5-min Rain = 0
KCH1 092115Z 21005KT 22/12 A3015 RMK A01 T02150121  RH  055%=      5-min Rain = 0
KCH1 092116Z 18004KT 22/12 A3015 RMK A01 T02150120  RH  055%=      5-min Rain = 0
KCH1 092117Z 18006KT 22/12 A3015 RMK A01 T02150120  RH  055%=      5-min Rain = 0
KCH1 092118Z 17006KT 22/12 A3015 RMK A01 T02150119  RH  054%=      5-min Rain = 0
KCH1 092119Z 16006KT 22/12 A3015 RMK A01 T02150120  RH  055%=      5-min Rain = 0
KCH1 092120Z 15004KT 21/12 A3015 RMK A01 T02140119  RH  055%=      5-min Rain = 0
KCH1 092121Z 14005KT 21/12 A3015 RMK A01 T02140121  RH  055%=      5-min Rain = 0
KCH1 092122Z 18004KT 22/12 A3015 RMK A01 T02150122  RH  055%=      5-min Rain = 0
KCH1 092123Z 18002KT 22/12 A3015 RMK A01 T02180124  RH  055%=      5-min Rain = 0
KCH1 092124Z 17003KT 22/12 A3015 RMK A01 T02210123  RH  054%=      5-min Rain = 0
KCH1 092125Z 18005KT 22/12 A3015 RMK A01 T02230121  RH  053%=      5-min Rain = 0
KCH1 092126Z 21006KT 22/12 A3015 RMK A01 T02230119  RH  052%=      5-min Rain = 0
KCH1 092127Z 21003KT 22/12 A3015 RMK A01 T02200118  RH  052%=      5-min Rain = 0
KCH1 092128Z 19006KT 22/12 A3015 RMK A01 T02180119  RH  053%=      5-min Rain = 0
KCH1 092129Z 19006KT 22/12 A3015 RMK A01 T02180118  RH  053%=      5-min Rain = 0
KCH1 092130Z 18004KT 22/12 A3015 RMK A01 T02170119  RH  053%=      5-min Rain = 0
KCH1 092131Z 20002KT 22/12 A3015 RMK A01 T02180117  RH  053%=      5-min Rain = 0
KCH1 092132Z 14001KT 22/12 A3015 RMK A01 T02180117  RH  053%=      5-min Rain = 0
KCH1 092133Z 17004KT 22/12 A3015 RMK A01 T02180119  RH  053%=      5-min Rain = 0
KCH1 092134Z 20005KT 22/12 A3015 RMK A01 T02190118  RH  053%=      5-min Rain = 0
KCH1 092135Z 19004KT 22/12 A3015 RMK A01 T02190116  RH  052%=      5-min Rain = 0
KCH1 092136Z 21003KT 22/12 A3015 RMK A01 T02190117  RH  052%=      5-min Rain = 0
KCH1 092137Z 22003KT 22/12 A3015 RMK A01 T02180116  RH  052%=      5-min Rain = 0
KCH1 092138Z 23004KT 22/12 A3015 RMK A01 T02170116  RH  053%=      5-min Rain = 0
KCH1 092139Z 25003KT 22/12 A3015 RMK A01 T02170117  RH  053%=      5-min Rain = 0
KCH1 092140Z 25004KT 22/12 A3014 RMK A01 T02180118  RH  053%=      5-min Rain = 0
KCH1 092141Z 27003KT 22/12 A3014 RMK A01 T02190118  RH  053%=      5-min Rain = 0
KCH1 092142Z 22003KT 22/12 A3014 RMK A01 T02200117  RH  052%=      5-min Rain = 0
KCH1 092143Z 25004KT 22/12 A3014 RMK A01 T02200118  RH  052%=      5-min Rain = 0
KCH1 092144Z 25003KT 22/12 A3014 RMK A01 T02210119  RH  052%=      5-min Rain = 0
KCH1 092145Z 22005KT 22/12 A3014 RMK A01 T02210117  RH  052%=      5-min Rain = 0
KCH1 092146Z 23006KT 22/12 A3014 RMK A01 T02200116  RH  052%=      5-min Rain = 0
KCH1 092147Z 25003KT 22/12 A3014 RMK A01 T02190116  RH  052%=      5-min Rain = 0
KCH1 092148Z 23004KT 22/12 A3014 RMK A01 T02190117  RH  052%=      5-min Rain = 0
KCH1 092149Z 23005KT 22/11 A3014 RMK A01 T02210114  RH  051%=      5-min Rain = 0
KCH1 092150Z 23006KT 22/12 A3014 RMK A01 T02200115  RH  051%=      5-min Rain = 0
KCH1 092151Z 23009KT 22/12 A3014 RMK A01 T02200116  RH  052%=      5-min Rain = 0
KCH1 092152Z 23007KT 22/12 A3014 RMK A01 T02190115  RH  051%=      5-min Rain = 0
KCH1 092153Z 21005KT 22/11 A3014 RMK A01 T02190114  RH  051%=      5-min Rain = 0
KCH1 092154Z 21004KT 22/11 A3014 RMK A01 T02180114  RH  051%=      5-min Rain = 0
KCH1 092155Z 21004KT 22/11 A3014 RMK A01 T02180114  RH  052%=      5-min Rain = 0
KCH1 092156Z 23004KT 22/11 A3014 RMK A01 T02180114  RH  052%=      5-min Rain = 0
KCH1 092157Z 20004KT 22/12 A3014 RMK A01 T02180116  RH  052%=      5-min Rain = 0
KCH1 092158Z 17003KT 22/12 A3014 RMK A01 T02180116  RH  052%=      5-min Rain = 0
KCH1 092159Z 16003KT 22/12 A3014 RMK A01 T02190118  RH  052%=      5-min Rain = 0
KCH1 092200Z 14004KT 22/12 A3014 RMK A01 T02210116  RH  052%=      5-min Rain = 0
KCH1 092201Z 13005KT 22/12 A3014 RMK A01 T02210117  RH  052%=      5-min Rain = 0
KCH1 092202Z 15005KT 22/12 A3014 RMK A01 T02200116  RH  052%=      5-min Rain = 0
KCH1 092203Z 13005KT 22/12 A3014 RMK A01 T02190116  RH  052%=      5-min Rain = 0
KCH1 092204Z 13007KT 22/12 A3014 RMK A01 T02180117  RH  053%=      5-min Rain = 0
KCH1 092205Z 15005KT 22/12 A3014 RMK A01 T02170117  RH  053%=      5-min Rain = 0
KCH1 092206Z 16005KT 22/12 A3014 RMK A01 T02170116  RH  053%=      5-min Rain = 0
KCH1 092207Z 16005KT 22/12 A3014 RMK A01 T02170117  RH  053%=      5-min Rain = 0
KCH1 092208Z 16005KT 22/12 A3014 RMK A01 T02170118  RH  053%=      5-min Rain = 0
KCH1 092209Z 18002KT 22/12 A3014 RMK A01 T02180119  RH  053%=      5-min Rain = 0
KCH1 092210Z 19004KT 22/12 A3014 RMK A01 T02200120  RH  053%=      5-min Rain = 0
KCH1 092211Z 17006KT 22/12 A3014 RMK A01 T02210118  RH  052%=      5-min Rain = 0
KCH1 092212Z 17004KT 22/12 A3014 RMK A01 T02210119  RH  052%=      5-min Rain = 0
KCH1 092213Z 15005KT 22/12 A3014 RMK A01 T02210119  RH  052%=      5-min Rain = 0
KCH1 092214Z 17006KT 22/12 A3014 RMK A01 T02210119  RH  052%=      5-min Rain = 0
KCH1 092215Z 19006KT 22/12 A3013 RMK A01 T02220118  RH  052%=      5-min Rain = 0
KCH1 092216Z 19004KT 22/12 A3013 RMK A01 T02220118  RH  052%=      5-min Rain = 0
KCH1 092217Z 16004KT 22/12 A3013 RMK A01 T02210117  RH  052%=      5-min Rain = 0
KCH1 092218Z 15003KT 22/12 A3013 RMK A01 T02200116  RH  052%=      5-min Rain = 0
KCH1 092219Z 15004KT 22/12 A3013 RMK A01 T02190117  RH  052%=      5-min Rain = 0
KCH1 092220Z 18005KT 22/12 A3013 RMK A01 T02190117  RH  052%=      5-min Rain = 0
KCH1 092221Z 15005KT 22/12 A3013 RMK A01 T02200118  RH  052%=      5-min Rain = 0
KCH1 092222Z 15006KT 22/12 A3013 RMK A01 T02200117  RH  052%=      5-min Rain = 0
KCH1 092223Z 15006KT 22/12 A3013 RMK A01 T02200116  RH  052%=      5-min Rain = 0
KCH1 092224Z 17005KT 22/12 A3013 RMK A01 T02190117  RH  052%=      5-min Rain = 0
KCH1 092225Z 19003KT 22/12 A3013 RMK A01 T02180117  RH  053%=      5-min Rain = 0
KCH1 092226Z 17003KT 22/12 A3013 RMK A01 T02180118  RH  053%=      5-min Rain = 0
KCH1 092227Z 17004KT 22/12 A3013 RMK A01 T02190116  RH  052%=      5-min Rain = 0
KCH1 092228Z 19002KT 22/12 A3013 RMK A01 T02190117  RH  052%=      5-min Rain = 0
KCH1 092229Z 18006KT 22/12 A3013 RMK A01 T02190116  RH  052%=      5-min Rain = 0
KCH1 092230Z 15006KT 22/12 A3013 RMK A01 T02190115  RH  052%=      5-min Rain = 0
KCH1 092231Z 15005KT 22/11 A3013 RMK A01 T02180114  RH  052%=      5-min Rain = 0
KCH1 092232Z 17003KT 22/11 A3013 RMK A01 T02180114  RH  052%=      5-min Rain = 0
KCH1 092233Z 18004KT 22/12 A3013 RMK A01 T02180115  RH  052%=      5-min Rain = 0
KCH1 092234Z 18003KT 22/12 A3013 RMK A01 T02180116  RH  052%=      5-min Rain = 0
KCH1 092235Z 18005KT 22/12 A3013 RMK A01 T02190116  RH  052%=      5-min Rain = 0
KCH1 092236Z 18005KT 22/12 A3013 RMK A01 T02190115  RH  052%=      5-min Rain = 0
KCH1 092237Z 21003KT 22/12 A3013 RMK A01 T02190116  RH  052%=      5-min Rain = 0
KCH1 092238Z 22004KT 22/12 A3013 RMK A01 T02190116  RH  052%=      5-min Rain = 0
KCH1 092239Z 22003KT 22/12 A3013 RMK A01 T02190115  RH  052%=      5-min Rain = 0
KCH1 092240Z 19003KT 22/12 A3013 RMK A01 T02190116  RH  052%=      5-min Rain = 0
KCH1 092241Z 18005KT 22/12 A3013 RMK A01 T02200117  RH  052%=      5-min Rain = 0
KCH1 092242Z 17006KT 22/12 A3013 RMK A01 T02200116  RH  052%=      5-min Rain = 0
KCH1 092243Z 17007KT 22/12 A3013 RMK A01 T02200116  RH  052%=      5-min Rain = 0
KCH1 092244Z 17006KT 22/12 A3013 RMK A01 T02190115  RH  052%=      5-min Rain = 0
KCH1 092245Z 18007KT 22/11 A3013 RMK A01 T02170114  RH  052%=      5-min Rain = 0
KCH1 092246Z 19005KT 22/12 A3013 RMK A01 T02170115  RH  052%=      5-min Rain = 0
KCH1 092247Z 18004KT 22/12 A3013 RMK A01 T02160115  RH  052%=      5-min Rain = 0
KCH1 092248Z 19004KT 22/12 A3013 RMK A01 T02170115  RH  052%=      5-min Rain = 0
KCH1 092249Z 17003KT 22/12 A3013 RMK A01 T02170115  RH  052%=      5-min Rain = 0
KCH1 092250Z 17004KT 22/12 A3013 RMK A01 T02170116  RH  053%=      5-min Rain = 0
KCH1 092251Z 17005KT 22/12 A3013 RMK A01 T02170115  RH  052%=      5-min Rain = 0
KCH1 092252Z 17005KT 22/11 A3013 RMK A01 T02170114  RH  052%=      5-min Rain = 0
KCH1 092253Z 17004KT 22/12 A3013 RMK A01 T02160115  RH  053%=      5-min Rain = 0
KCH1 092254Z 16004KT 22/12 A3013 RMK A01 T02160116  RH  053%=      5-min Rain = 0
KCH1 092255Z 15005KT 22/12 A3013 RMK A01 T02150115  RH  053%=      5-min Rain = 0
KCH1 092256Z 15005KT 22/11 A3013 RMK A01 T02150113  RH  052%=      5-min Rain = 0
KCH1 092257Z 16006KT 22/11 A3013 RMK A01 T02150114  RH  052%=      5-min Rain = 0
KCH1 092258Z 15005KT 22/11 A3013 RMK A01 T02150114  RH  053%=      5-min Rain = 0
KCH1 092259Z 15006KT 22/11 A3013 RMK A01 T02150114  RH  053%=      5-min Rain = 0
KCH1 092300Z 16006KT 21/11 A3013 RMK A01 T02140114  RH  053%=      5-min Rain = 0
KCH1 092301Z 16005KT 21/11 A3013 RMK A01 T02140113  RH  053%=      5-min Rain = 0
KCH1 092302Z 16006KT 21/11 A3013 RMK A01 T02140114  RH  053%=      5-min Rain = 0
KCH1 092303Z 17006KT 21/11 A3013 RMK A01 T02130114  RH  053%=      5-min Rain = 0
KCH1 092304Z 19005KT 21/12 A3013 RMK A01 T02130115  RH  054%=      5-min Rain = 0
KCH1 092305Z 19006KT 21/12 A3013 RMK A01 T02130115  RH  054%=      5-min Rain = 0
KCH1 092306Z 20004KT 21/12 A3013 RMK A01 T02120115  RH  054%=      5-min Rain = 0
KCH1 092307Z 20004KT 21/12 A3013 RMK A01 T02120115  RH  054%=      5-min Rain = 0
KCH1 092308Z 20005KT 21/11 A3013 RMK A01 T02120114  RH  054%=      5-min Rain = 0
KCH1 092309Z 19004KT 21/12 A3013 RMK A01 T02120115  RH  054%=      5-min Rain = 0
KCH1 092310Z 18005KT 21/11 A3013 RMK A01 T02110114  RH  054%=      5-min Rain = 0
KCH1 092311Z 18005KT 21/11 A3013 RMK A01 T02110113  RH  054%=      5-min Rain = 0
KCH1 092312Z 18005KT 21/11 A3013 RMK A01 T02100113  RH  054%=      5-min Rain = 0
KCH1 092313Z 17004KT 21/11 A3013 RMK A01 T02090113  RH  054%=      5-min Rain = 0
KCH1 092314Z 17004KT 21/11 A3013 RMK A01 T02090113  RH  054%=      5-min Rain = 0
KCH1 092315Z 17004KT 21/11 A3013 RMK A01 T02090113  RH  054%=      5-min Rain = 0
KCH1 092316Z 17004KT 21/11 A3013 RMK A01 T02080112  RH  054%=      5-min Rain = 0
KCH1 092317Z 16004KT 21/11 A3013 RMK A01 T02080113  RH  054%=      5-min Rain = 0
KCH1 092318Z 17005KT 21/11 A3013 RMK A01 T02070113  RH  055%=      5-min Rain = 0
KCH1 092319Z 16005KT 21/11 A3013 RMK A01 T02060113  RH  055%=      5-min Rain = 0
KCH1 092320Z 14006KT 21/11 A3013 RMK A01 T02050114  RH  056%=      5-min Rain = 0
KCH1 092321Z 14007KT 20/12 A3013 RMK A01 T02040116  RH  057%=      5-min Rain = 0
KCH1 092322Z 14006KT 20/12 A3013 RMK A01 T02020117  RH  058%=      5-min Rain = 0
KCH1 092323Z 13005KT 20/12 A3013 RMK A01 T02010118  RH  059%=      5-min Rain = 0
KCH1 092324Z 13005KT 20/12 A3013 RMK A01 T02000118  RH  059%=      5-min Rain = 0
KCH1 092325Z 14007KT 20/12 A3013 RMK A01 T01990119  RH  060%=      5-min Rain = 0
KCH1 092326Z 14006KT 20/12 A3013 RMK A01 T01980119  RH  060%=      5-min Rain = 0
KCH1 092327Z 15006KT 20/12 A3013 RMK A01 T01970119  RH  061%=      5-min Rain = 0
KCH1 092328Z 15006KT 20/12 A3013 RMK A01 T01960119  RH  061%=      5-min Rain = 0
KCH1 092329Z 16005KT 20/12 A3013 RMK A01 T01950119  RH  061%=      5-min Rain = 0
KCH1 092330Z 15005KT 19/12 A3013 RMK A01 T01940119  RH  062%=      5-min Rain = 0
KCH1 092331Z 15005KT 19/12 A3013 RMK A01 T01940119  RH  062%=      5-min Rain = 0
KCH1 092332Z 15005KT 19/12 A3013 RMK A01 T01930119  RH  062%=      5-min Rain = 0
KCH1 092333Z 15005KT 19/12 A3013 RMK A01 T01920119  RH  063%=      5-min Rain = 0
KCH1 092334Z 16005KT 19/12 A3013 RMK A01 T01910119  RH  063%=      5-min Rain = 0
KCH1 092335Z 15005KT 19/12 A3013 RMK A01 T01900119  RH  063%=      5-min Rain = 0
KCH1 092336Z 15005KT 19/12 A3013 RMK A01 T01900119  RH  064%=      5-min Rain = 0
KCH1 092337Z 16005KT 19/12 A3013 RMK A01 T01890119  RH  064%=      5-min Rain = 0
KCH1 092338Z 16005KT 19/12 A3013 RMK A01 T01880119  RH  064%=      5-min Rain = 0
KCH1 092339Z 15005KT 19/12 A3013 RMK A01 T01880119  RH  064%=      5-min Rain = 0
KCH1 092340Z 15006KT 19/12 A3013 RMK A01 T01870119  RH  064%=      5-min Rain = 0
KCH1 092341Z 15005KT 19/12 A3013 RMK A01 T01870119  RH  065%=      5-min Rain = 0
KCH1 092342Z 15005KT 19/12 A3013 RMK A01 T01870119  RH  065%=      5-min Rain = 0
KCH1 092343Z 15005KT 19/12 A3013 RMK A01 T01860119  RH  065%=      5-min Rain = 0
KCH1 092344Z 15005KT 19/12 A3013 RMK A01 T01850118  RH  065%=      5-min Rain = 0
KCH1 092345Z 15005KT 19/12 A3013 RMK A01 T01850119  RH  065%=      5-min Rain = 0
KCH1 092346Z 16005KT 18/12 A3013 RMK A01 T01840118  RH  065%=      5-min Rain = 0
KCH1 092347Z 16006KT 18/12 A3013 RMK A01 T01830118  RH  066%=      5-min Rain = 0
KCH1 092348Z 16005KT 18/12 A3013 RMK A01 T01830118  RH  066%=      5-min Rain = 0
KCH1 092349Z 16005KT 18/12 A3013 RMK A01 T01820118  RH  066%=      5-min Rain = 0
KCH1 092350Z 16005KT 18/12 A3013 RMK A01 T01820118  RH  066%=      5-min Rain = 0
KCH1 092351Z 17005KT 18/12 A3013 RMK A01 T01820118  RH  066%=      5-min Rain = 0
KCH1 092352Z 16006KT 18/12 A3013 RMK A01 T01810118  RH  067%=      5-min Rain = 0
KCH1 092353Z 16006KT 18/12 A3013 RMK A01 T01810118  RH  067%=      5-min Rain = 0
KCH1 092354Z 16006KT 18/12 A3013 RMK A01 T01800118  RH  067%=      5-min Rain = 0
KCH1 092355Z 16005KT 18/12 A3013 RMK A01 T01800118  RH  067%=      5-min Rain = 0
KCH1 092356Z 16005KT 18/12 A3013 RMK A01 T01790118  RH  067%=      5-min Rain = 0
KCH1 092357Z 16005KT 18/12 A3013 RMK A01 T01780118  RH  068%=      5-min Rain = 0
KCH1 092358Z 16005KT 18/12 A3013 RMK A01 T01780118  RH  068%=      5-min Rain = 0
KCH1 092359Z 16004KT 18/12 A3013 RMK A01 T01770118  RH  068%=      5-min Rain = 0
KCH1 100000Z 16004KT 18/12 A3013 RMK A01 T01770118  RH  068%=      5-min Rain = 0
KCH1 100001Z 15005KT 18/12 A3013 RMK A01 T01760117  RH  068%=      5-min Rain = 0
KCH1 100002Z 15004KT 18/12 A3013 RMK A01 T01760117  RH  069%=      5-min Rain = 0
KCH1 100003Z 15005KT 18/12 A3013 RMK A01 T01750118  RH  069%=      5-min Rain = 0
KCH1 100004Z 15004KT 18/12 A3013 RMK A01 T01750117  RH  069%=      5-min Rain = 0
KCH1 100005Z 15005KT 17/12 A3013 RMK A01 T01740118  RH  069%=      5-min Rain = 0
KCH1 100006Z 15005KT 17/12 A3013 RMK A01 T01740118  RH  070%=      5-min Rain = 0
KCH1 100007Z 15005KT 17/12 A3013 RMK A01 T01730117  RH  070%=      5-min Rain = 0
KCH1 100008Z 15005KT 17/12 A3013 RMK A01 T01720118  RH  070%=      5-min Rain = 0
KCH1 100009Z 15005KT 17/12 A3013 RMK A01 T01720117  RH  070%=      5-min Rain = 0
KCH1 100010Z 15005KT 17/12 A3013 RMK A01 T01710117  RH  071%=      5-min Rain = 0
KCH1 100011Z 16005KT 17/12 A3013 RMK A01 T01700117  RH  071%=      5-min Rain = 0
KCH1 100012Z 16005KT 17/12 A3013 RMK A01 T01700118  RH  071%=      5-min Rain = 0
KCH1 100013Z 16005KT 17/12 A3013 RMK A01 T01700118  RH  071%=      5-min Rain = 0
KCH1 100014Z 16005KT 17/12 A3013 RMK A01 T01700118  RH  072%=      5-min Rain = 0
KCH1 100015Z 16006KT 17/12 A3013 RMK A01 T01690118  RH  072%=      5-min Rain = 0
KCH1 100016Z 16006KT 17/12 A3013 RMK A01 T01690118  RH  072%=      5-min Rain = 0
KCH1 100017Z 17005KT 17/12 A3013 RMK A01 T01690119  RH  072%=      5-min Rain = 0
KCH1 100018Z 17005KT 17/12 A3013 RMK A01 T01690118  RH  072%=      5-min Rain = 0
KCH1 100019Z 17005KT 17/12 A3013 RMK A01 T01680118  RH  073%=      5-min Rain = 0
KCH1 100020Z 17005KT 17/12 A3013 RMK A01 T01670118  RH  073%=      5-min Rain = 0
KCH1 100021Z 17005KT 17/12 A3013 RMK A01 T01670119  RH  073%=      5-min Rain = 0
KCH1 100022Z 16005KT 17/12 A3013 RMK A01 T01660119  RH  073%=      5-min Rain = 0
KCH1 100023Z 16005KT 17/12 A3013 RMK A01 T01660119  RH  074%=      5-min Rain = 0
KCH1 100024Z 16005KT 17/12 A3013 RMK A01 T01660119  RH  074%=      5-min Rain = 0
KCH1 100025Z 16005KT 17/12 A3013 RMK A01 T01650119  RH  074%=      5-min Rain = 0
KCH1 100026Z 16005KT 17/12 A3013 RMK A01 T01650119  RH  074%=      5-min Rain = 0
KCH1 100027Z 16005KT 16/12 A3013 RMK A01 T01640119  RH  075%=      5-min Rain = 0
KCH1 100028Z 16004KT 16/12 A3013 RMK A01 T01640119  RH  075%=      5-min Rain = 0
KCH1 100029Z 16004KT 16/12 A3013 RMK A01 T01630118  RH  075%=      5-min Rain = 0
KCH1 100030Z 16004KT 16/12 A3013 RMK A01 T01620119  RH  075%=      5-min Rain = 0
KCH1 100031Z 17004KT 16/12 A3013 RMK A01 T01620118  RH  075%=      5-min Rain = 0
KCH1 100032Z 16005KT 16/12 A3013 RMK A01 T01610119  RH  076%=      5-min Rain = 0
KCH1 100033Z 16005KT 16/12 A3013 RMK A01 T01610119  RH  076%=      5-min Rain = 0
KCH1 100034Z 16005KT 16/12 A3013 RMK A01 T01610119  RH  076%=      5-min Rain = 0
KCH1 100035Z 16005KT 16/12 A3013 RMK A01 T01610119  RH  076%=      5-min Rain = 0
KCH1 100036Z 16005KT 16/12 A3013 RMK A01 T01610119  RH  076%=      5-min Rain = 0
KCH1 100037Z 16005KT 16/12 A3013 RMK A01 T01600119  RH  077%=      5-min Rain = 0
KCH1 100038Z 16005KT 16/12 A3013 RMK A01 T01590119  RH  077%=      5-min Rain = 0
KCH1 100039Z 16005KT 16/12 A3013 RMK A01 T01590119  RH  077%=      5-min Rain = 0
KCH1 100040Z 16005KT 16/12 A3013 RMK A01 T01590119  RH  077%=      5-min Rain = 0
KCH1 100041Z 16005KT 16/12 A3013 RMK A01 T01580119  RH  077%=      5-min Rain = 0
KCH1 100042Z 16004KT 16/12 A3013 RMK A01 T01580119  RH  078%=      5-min Rain = 0
KCH1 100043Z 16004KT 16/12 A3013 RMK A01 T01580119  RH  078%=      5-min Rain = 0
KCH1 100044Z 16004KT 16/12 A3013 RMK A01 T01580119  RH  078%=      5-min Rain = 0
KCH1 100045Z 16004KT 16/12 A3013 RMK A01 T01580119  RH  078%=      5-min Rain = 0
KCH1 100046Z 16004KT 16/12 A3013 RMK A01 T01580119  RH  078%=      5-min Rain = 0
KCH1 100047Z 16004KT 16/12 A3013 RMK A01 T01570119  RH  078%=      5-min Rain = 0
KCH1 100048Z 16004KT 16/12 A3013 RMK A01 T01560119  RH  078%=      5-min Rain = 0
KCH1 100049Z 16004KT 16/12 A3013 RMK A01 T01560119  RH  078%=      5-min Rain = 0
KCH1 100050Z 16004KT 16/12 A3013 RMK A01 T01560119  RH  079%=      5-min Rain = 0
KCH1 100051Z 16004KT 16/12 A3013 RMK A01 T01550119  RH  079%=      5-min Rain = 0
KCH1 100052Z 17004KT 16/12 A3013 RMK A01 T01550119  RH  079%=      5-min Rain = 0
KCH1 100053Z 16004KT 16/12 A3013 RMK A01 T01550119  RH  079%=      5-min Rain = 0
KCH1 100054Z 17004KT 15/12 A3013 RMK A01 T01540119  RH  079%=      5-min Rain = 0
KCH1 100055Z 16004KT 15/12 A3013 RMK A01 T01540119  RH  079%=      5-min Rain = 0
KCH1 100056Z 17004KT 15/12 A3013 RMK A01 T01540119  RH  079%=      5-min Rain = 0
KCH1 100057Z 17004KT 15/12 A3014 RMK A01 T01540119  RH  080%=      5-min Rain = 0
KCH1 100058Z 17004KT 15/12 A3014 RMK A01 T01530119  RH  080%=      5-min Rain = 0
KCH1 100059Z 16004KT 15/12 A3014 RMK A01 T01530119  RH  080%=      5-min Rain = 0
KCH1 100100Z 17004KT 15/12 A3013 RMK A01 T01530119  RH  080%=      5-min Rain = 0
KCH1 100101Z 16004KT 15/12 A3013 RMK A01 T01530119  RH  080%=      5-min Rain = 0
KCH1 100102Z 17004KT 15/12 A3013 RMK A01 T01530119  RH  080%=      5-min Rain = 0
KCH1 100103Z 17004KT 15/12 A3013 RMK A01 T01520118  RH  080%=      5-min Rain = 0
KCH1 100104Z 16004KT 15/12 A3014 RMK A01 T01520119  RH  081%=      5-min Rain = 0
KCH1 100105Z 16004KT 15/12 A3014 RMK A01 T01510118  RH  081%=      5-min Rain = 0
KCH1 100106Z 16004KT 15/12 A3014 RMK A01 T01510119  RH  081%=      5-min Rain = 0
KCH1 100107Z 17004KT 15/12 A3014 RMK A01 T01510119  RH  081%=      5-min Rain = 0
KCH1 100108Z 17005KT 15/12 A3014 RMK A01 T01500119  RH  081%=      5-min Rain = 0
KCH1 100109Z 17005KT 15/12 A3014 RMK A01 T01500118  RH  081%=      5-min Rain = 0
KCH1 100110Z 17005KT 15/12 A3014 RMK A01 T01500119  RH  082%=      5-min Rain = 0
KCH1 100111Z 17005KT 15/12 A3014 RMK A01 T01500119  RH  082%=      5-min Rain = 0
KCH1 100112Z 17005KT 15/12 A3014 RMK A01 T01490118  RH  082%=      5-min Rain = 0
KCH1 100113Z 17005KT 15/12 A3014 RMK A01 T01490119  RH  082%=      5-min Rain = 0
KCH1 100114Z 17005KT 15/12 A3014 RMK A01 T01490118  RH  082%=      5-min Rain = 0
KCH1 100115Z 17005KT 15/12 A3014 RMK A01 T01480118  RH  082%=      5-min Rain = 0
KCH1 100116Z 17005KT 15/12 A3014 RMK A01 T01470118  RH  083%=      5-min Rain = 0
KCH1 100117Z 17005KT 15/12 A3014 RMK A01 T01480119  RH  083%=      5-min Rain = 0
KCH1 100118Z 17005KT 15/12 A3014 RMK A01 T01480119  RH  083%=      5-min Rain = 0
KCH1 100119Z 17005KT 15/12 A3014 RMK A01 T01470119  RH  083%=      5-min Rain = 0
KCH1 100120Z 17005KT 15/12 A3014 RMK A01 T01470119  RH  083%=      5-min Rain = 0
KCH1 100121Z 17005KT 15/12 A3014 RMK A01 T01470119  RH  083%=      5-min Rain = 0
KCH1 100122Z 17005KT 15/12 A3014 RMK A01 T01470119  RH  083%=      5-min Rain = 0
KCH1 100123Z 17005KT 15/12 A3014 RMK A01 T01460119  RH  083%=      5-min Rain = 0
KCH1 100124Z 17004KT 15/12 A3014 RMK A01 T01470119  RH  084%=      5-min Rain = 0
KCH1 100125Z 17004KT 15/12 A3014 RMK A01 T01460119  RH  083%=      5-min Rain = 0
KCH1 100126Z 17004KT 15/12 A3014 RMK A01 T01460118  RH  084%=      5-min Rain = 0
KCH1 100127Z 17004KT 15/12 A3014 RMK A01 T01460119  RH  084%=      5-min Rain = 0
KCH1 100128Z 16004KT 15/12 A3014 RMK A01 T01450119  RH  084%=      5-min Rain = 0
KCH1 100129Z 16004KT 15/12 A3014 RMK A01 T01450119  RH  084%=      5-min Rain = 0
KCH1 100130Z 16004KT 15/12 A3014 RMK A01 T01450119  RH  084%=      5-min Rain = 0
KCH1 100131Z 16004KT 15/12 A3014 RMK A01 T01450119  RH  085%=      5-min Rain = 0
KCH1 100132Z 16004KT 15/12 A3014 RMK A01 T01450119  RH  085%=      5-min Rain = 0
KCH1 100133Z 16004KT 14/12 A3014 RMK A01 T01440119  RH  085%=      5-min Rain = 0
KCH1 100134Z 16003KT 14/12 A3014 RMK A01 T01440119  RH  085%=      5-min Rain = 0
KCH1 100135Z 16003KT 14/12 A3014 RMK A01 T01440119  RH  085%=      5-min Rain = 0
KCH1 100136Z 16003KT 14/12 A3014 RMK A01 T01430119  RH  085%=      5-min Rain = 0
KCH1 100137Z 16003KT 14/12 A3014 RMK A01 T01430119  RH  085%=      5-min Rain = 0
KCH1 100138Z 16003KT 14/12 A3014 RMK A01 T01420119  RH  085%=      5-min Rain = 0
KCH1 100139Z 17003KT 14/12 A3014 RMK A01 T01420118  RH  086%=      5-min Rain = 0
KCH1 100140Z 17003KT 14/12 A3014 RMK A01 T01420119  RH  086%=      5-min Rain = 0
KCH1 100141Z 17003KT 14/12 A3014 RMK A01 T01420119  RH  086%=      5-min Rain = 0
KCH1 100142Z 17004KT 14/12 A3014 RMK A01 T01420119  RH  086%=      5-min Rain = 0
KCH1 100143Z 17004KT 14/12 A3014 RMK A01 T01420119  RH  086%=      5-min Rain = 0
KCH1 100144Z 17004KT 14/12 A3014 RMK A01 T01420119  RH  086%=      5-min Rain = 0
KCH1 100145Z 17003KT 14/12 A3014 RMK A01 T01420119  RH  086%=      5-min Rain = 0
KCH1 100146Z 17003KT 14/12 A3014 RMK A01 T01410119  RH  086%=      5-min Rain = 0
KCH1 100147Z 17003KT 14/12 A3014 RMK A01 T01410119  RH  087%=      5-min Rain = 0
KCH1 100148Z 17003KT 14/12 A3014 RMK A01 T01410119  RH  087%=      5-min Rain = 0
KCH1 100149Z 17003KT 14/12 A3014 RMK A01 T01410119  RH  087%=      5-min Rain = 0
KCH1 100150Z 16003KT 14/12 A3014 RMK A01 T01410119  RH  087%=      5-min Rain = 0
KCH1 100151Z 16003KT 14/12 A3014 RMK A01 T01410119  RH  087%=      5-min Rain = 0
KCH1 100152Z 16003KT 14/12 A3014 RMK A01 T01400119  RH  087%=      5-min Rain = 0
KCH1 100153Z 15003KT 14/12 A3014 RMK A01 T01400119  RH  087%=      5-min Rain = 0
KCH1 100154Z 15003KT 14/12 A3014 RMK A01 T01400120  RH  087%=      5-min Rain = 0
KCH1 100155Z 15003KT 14/12 A3014 RMK A01 T01400119  RH  087%=      5-min Rain = 0
KCH1 100156Z 16003KT 14/12 A3014 RMK A01 T01400119  RH  087%=      5-min Rain = 0
KCH1 100157Z 15003KT 14/12 A3014 RMK A01 T01390118  RH  087%=      5-min Rain = 0
KCH1 100158Z 15003KT 14/12 A3014 RMK A01 T01390118  RH  088%=      5-min Rain = 0
KCH1 100159Z 16003KT 14/12 A3014 RMK A01 T01380118  RH  088%=      5-min Rain = 0
KCH1 100200Z 16003KT 14/12 A3014 RMK A01 T01380119  RH  088%=      5-min Rain = 0
KCH1 100201Z 16003KT 14/12 A3014 RMK A01 T01370119  RH  089%=      5-min Rain = 0
KCH1 100202Z 16004KT 14/12 A3014 RMK A01 T01370118  RH  089%=      5-min Rain = 0
KCH1 100203Z 17003KT 14/12 A3014 RMK A01 T01370119  RH  089%=      5-min Rain = 0
KCH1 100204Z 17003KT 14/12 A3014 RMK A01 T01360119  RH  089%=      5-min Rain = 0
KCH1 100205Z 17003KT 14/12 A3014 RMK A01 T01360119  RH  089%=      5-min Rain = 0
KCH1 100206Z 17003KT 14/12 A3014 RMK A01 T01360119  RH  089%=      5-min Rain = 0
KCH1 100207Z 17003KT 14/12 A3014 RMK A01 T01370119  RH  089%=      5-min Rain = 0
KCH1 100208Z 17003KT 14/12 A3014 RMK A01 T01370119  RH  089%=      5-min Rain = 0
KCH1 100209Z 16003KT 14/12 A3014 RMK A01 T01370119  RH  089%=      5-min Rain = 0
KCH1 100210Z 15002KT 14/12 A3014 RMK A01 T01380120  RH  089%=      5-min Rain = 0
KCH1 100211Z 15002KT 14/12 A3014 RMK A01 T01380118  RH  088%=      5-min Rain = 0
KCH1 100212Z 15003KT 14/12 A3014 RMK A01 T01360117  RH  088%=      5-min Rain = 0
KCH1 100213Z 15003KT 14/12 A3014 RMK A01 T01350116  RH  089%=      5-min Rain = 0
KCH1 100214Z 15003KT 13/12 A3014 RMK A01 T01340116  RH  089%=      5-min Rain = 0
KCH1 100215Z 16003KT 13/12 A3014 RMK A01 T01330116  RH  090%=      5-min Rain = 0
KCH1 100216Z 17002KT 13/12 A3014 RMK A01 T01320116  RH  090%=      5-min Rain = 0
KCH1 100217Z 17003KT 13/12 A3014 RMK A01 T01320117  RH  090%=      5-min Rain = 0
KCH1 100218Z 17003KT 13/12 A3014 RMK A01 T01320117  RH  091%=      5-min Rain = 0
KCH1 100219Z 18003KT 13/12 A3014 RMK A01 T01320118  RH  091%=      5-min Rain = 0
KCH1 100220Z 18003KT 13/12 A3014 RMK A01 T01320118  RH  091%=      5-min Rain = 0
KCH1 100221Z 18003KT 13/12 A3014 RMK A01 T01320118  RH  091%=      5-min Rain = 0
KCH1 100222Z 18003KT 13/12 A3014 RMK A01 T01320119  RH  092%=      5-min Rain = 0
KCH1 100223Z 18003KT 13/12 A3014 RMK A01 T01330119  RH  092%=      5-min Rain = 0
KCH1 100224Z 18003KT 13/12 A3014 RMK A01 T01330120  RH  091%=      5-min Rain = 0
KCH1 100225Z 19003KT 13/12 A3014 RMK A01 T01340119  RH  091%=      5-min Rain = 0
KCH1 100226Z 19003KT 13/12 A3014 RMK A01 T01340119  RH  091%=      5-min Rain = 0
KCH1 100227Z 19003KT 13/12 A3014 RMK A01 T01340119  RH  090%=      5-min Rain = 0
KCH1 100228Z 19003KT 14/12 A3014 RMK A01 T01350119  RH  090%=      5-min Rain = 0
KCH1 100229Z 20003KT 14/12 A3014 RMK A01 T01350120  RH  090%=      5-min Rain = 0
KCH1 100230Z 19003KT 14/12 A3014 RMK A01 T01350119  RH  090%=      5-min Rain = 0
KCH1 100231Z 18003KT 14/12 A3014 RMK A01 T01350119  RH  090%=      5-min Rain = 0
KCH1 100232Z 18003KT 14/12 A3014 RMK A01 T01350119  RH  090%=      5-min Rain = 0
KCH1 100233Z 17003KT 14/12 A3014 RMK A01 T01350118  RH  090%=      5-min Rain = 0
KCH1 100234Z 17003KT 14/12 A3014 RMK A01 T01350117  RH  089%=      5-min Rain = 0
KCH1 100235Z 18003KT 13/12 A3014 RMK A01 T01330115  RH  089%=      5-min Rain = 0
KCH1 100236Z 19003KT 13/12 A3014 RMK A01 T01320115  RH  090%=      5-min Rain = 0
KCH1 100237Z 18003KT 13/12 A3014 RMK A01 T01320117  RH  091%=      5-min Rain = 0
KCH1 100238Z 18003KT 13/12 A3014 RMK A01 T01310118  RH  091%=      5-min Rain = 0
KCH1 100239Z 18003KT 13/12 A3014 RMK A01 T01320118  RH  091%=      5-min Rain = 0
KCH1 100240Z 18004KT 13/12 A3014 RMK A01 T01310118  RH  091%=      5-min Rain = 0
KCH1 100241Z 18004KT 13/12 A3014 RMK A01 T01310118  RH  092%=      5-min Rain = 0
KCH1 100242Z 18003KT 13/12 A3014 RMK A01 T01310118  RH  092%=      5-min Rain = 0
KCH1 100243Z 18003KT 13/12 A3014 RMK A01 T01310118  RH  092%=      5-min Rain = 0
KCH1 100244Z 18003KT 13/12 A3014 RMK A01 T01310118  RH  092%=      5-min Rain = 0
KCH1 100245Z 18003KT 13/12 A3014 RMK A01 T01310118  RH  092%=      5-min Rain = 0
KCH1 100246Z 18003KT 13/12 A3014 RMK A01 T01310117  RH  091%=      5-min Rain = 0
KCH1 100247Z 17002KT 13/11 A3014 RMK A01 T01290113  RH  090%=      5-min Rain = 0
KCH1 100248Z 17002KT 13/11 A3014 RMK A01 T01250107  RH  089%=      5-min Rain = 0
KCH1 100249Z 17002KT 12/11 A3014 RMK A01 T01230108  RH  091%=      5-min Rain = 0
KCH1 100250Z 17002KT 12/11 A3014 RMK A01 T01200106  RH  091%=      5-min Rain = 0
KCH1 100253Z 16002KT 12/11 A3014 RMK A01 T01170106  RH  093%=      5-min Rain = 0
KCH1 100254Z 16002KT 12/11 A3014 RMK A01 T01160107  RH  094%=      5-min Rain = 0
KCH1 100255Z 15002KT 12/11 A3014 RMK A01 T01160108  RH  095%=      5-min Rain = 0
KCH1 100256Z 14002KT 12/11 A3014 RMK A01 T01170109  RH  095%=      5-min Rain = 0
KCH1 100257Z 14002KT 12/11 A3014 RMK A01 T01170110  RH  095%=      5-min Rain = 0
KCH1 100258Z 13002KT 12/11 A3014 RMK A01 T01170111  RH  096%=      5-min Rain = 0
KCH1 100259Z 12002KT 12/11 A3014 RMK A01 T01180111  RH  096%=      5-min Rain = 0
KCH1 100300Z 11002KT 12/11 A3014 RMK A01 T01180110  RH  095%=      5-min Rain = 0
KCH1 100301Z 11002KT 12/11 A3014 RMK A01 T01170109  RH  095%=      5-min Rain = 0
KCH1 100302Z 10002KT 12/11 A3014 RMK A01 T01160108  RH  095%=      5-min Rain = 0
KCH1 100303Z 10002KT 12/11 A3014 RMK A01 T01160108  RH  095%=      5-min Rain = 0
KCH1 100304Z 11002KT 12/11 A3014 RMK A01 T01150107  RH  095%=      5-min Rain = 0
KCH1 100305Z 12002KT 12/11 A3014 RMK A01 T01150108  RH  095%=      5-min Rain = 0
KCH1 100306Z 12002KT 12/11 A3014 RMK A01 T01150108  RH  095%=      5-min Rain = 0
KCH1 100307Z 11002KT 12/11 A3014 RMK A01 T01150108  RH  096%=      5-min Rain = 0
KCH1 100308Z 12002KT 12/11 A3014 RMK A01 T01150108  RH  096%=      5-min Rain = 0
KCH1 100309Z 12002KT 12/11 A3014 RMK A01 T01150109  RH  096%=      5-min Rain = 0
KCH1 100310Z 12002KT 12/11 A3014 RMK A01 T01160111  RH  096%=      5-min Rain = 0
KCH1 100311Z 13002KT 12/11 A3014 RMK A01 T01170112  RH  097%=      5-min Rain = 0
KCH1 100312Z 11002KT 12/11 A3014 RMK A01 T01180113  RH  097%=      5-min Rain = 0
KCH1 100313Z 13002KT 12/11 A3014 RMK A01 T01180113  RH  096%=      5-min Rain = 0
KCH1 100314Z 13002KT 12/11 A3014 RMK A01 T01180112  RH  096%=      5-min Rain = 0
KCH1 100315Z 12002KT 12/11 A3014 RMK A01 T01180112  RH  096%=      5-min Rain = 0
KCH1 100316Z 13002KT 12/11 A3014 RMK A01 T01180112  RH  096%=      5-min Rain = 0
KCH1 100317Z 13002KT 12/11 A3014 RMK A01 T01180112  RH  096%=      5-min Rain = 0
KCH1 100318Z 13002KT 12/11 A3014 RMK A01 T01180113  RH  096%=      5-min Rain = 0
KCH1 100319Z 14002KT 12/11 A3014 RMK A01 T01190113  RH  096%=      5-min Rain = 0
KCH1 100320Z 14002KT 12/11 A3014 RMK A01 T01190112  RH  096%=      5-min Rain = 0
KCH1 100321Z 15002KT 12/11 A3014 RMK A01 T01190113  RH  096%=      5-min Rain = 0
KCH1 100322Z 16002KT 12/11 A3014 RMK A01 T01190112  RH  096%=      5-min Rain = 0
KCH1 100323Z 15002KT 12/11 A3014 RMK A01 T01180113  RH  096%=      5-min Rain = 0
KCH1 100324Z 15002KT 12/11 A3014 RMK A01 T01190113  RH  096%=      5-min Rain = 0
KCH1 100325Z 16002KT 12/11 A3014 RMK A01 T01180112  RH  096%=      5-min Rain = 0
KCH1 100326Z 17002KT 12/11 A3014 RMK A01 T01180112  RH  096%=      5-min Rain = 0
KCH1 100327Z 16002KT 12/11 A3014 RMK A01 T01180113  RH  096%=      5-min Rain = 0
KCH1 100328Z 16002KT 12/11 A3014 RMK A01 T01180113  RH  096%=      5-min Rain = 0
KCH1 100329Z 17001KT 12/11 A3014 RMK A01 T01180113  RH  096%=      5-min Rain = 0
KCH1 100330Z 17001KT 12/11 A3014 RMK A01 T01180113  RH  097%=      5-min Rain = 0
KCH1 100331Z 17001KT 12/11 A3014 RMK A01 T01180113  RH  096%=      5-min Rain = 0
KCH1 100332Z 18001KT 12/11 A3014 RMK A01 T01180112  RH  096%=      5-min Rain = 0
KCH1 100333Z 17001KT 12/11 A3014 RMK A01 T01170111  RH  096%=      5-min Rain = 0
KCH1 100334Z 17001KT 12/11 A3014 RMK A01 T01170111  RH  096%=      5-min Rain = 0
KCH1 100335Z 17000KT 12/11 A3014 RMK A01 T01170111  RH  096%=      5-min Rain = 0
KCH1 100336Z 00000KT 12/11 A3014 RMK A01 T01170112  RH  097%=      5-min Rain = 0
KCH1 100337Z 00000KT 12/11 A3014 RMK A01 T01170112  RH  097%=      5-min Rain = 0
KCH1 100338Z 00000KT 12/11 A3014 RMK A01 T01170112  RH  097%=      5-min Rain = 0
KCH1 100339Z 00000KT 12/11 A3014 RMK A01 T01160110  RH  096%=      5-min Rain = 0
KCH1 100340Z 00000KT 12/11 A3014 RMK A01 T01150109  RH  096%=      5-min Rain = 0
KCH1 100341Z 00000KT 12/11 A3014 RMK A01 T01150109  RH  096%=      5-min Rain = 0
KCH1 100342Z 14000KT 11/11 A3014 RMK A01 T01140108  RH  096%=      5-min Rain = 0
KCH1 100343Z 14001KT 11/11 A3014 RMK A01 T01140109  RH  097%=      5-min Rain = 0
KCH1 100344Z 13001KT 12/11 A3014 RMK A01 T01150110  RH  097%=      5-min Rain = 0
KCH1 100345Z 13001KT 12/11 A3014 RMK A01 T01150109  RH  097%=      5-min Rain = 0
KCH1 100346Z 13001KT 12/11 A3014 RMK A01 T01150111  RH  097%=      5-min Rain = 0
KCH1 100347Z 13001KT 12/11 A3014 RMK A01 T01160112  RH  097%=      5-min Rain = 0
KCH1 100348Z 14000KT 12/11 A3014 RMK A01 T01160111  RH  097%=      5-min Rain = 0
KCH1 100349Z 15001KT 12/11 A3014 RMK A01 T01160111  RH  097%=      5-min Rain = 0
KCH1 100350Z 16001KT 12/11 A3014 RMK A01 T01150111  RH  097%=      5-min Rain = 0
KCH1 100351Z 16001KT 12/11 A3014 RMK A01 T01150110  RH  097%=      5-min Rain = 0
KCH1 100352Z 16001KT 12/11 A3014 RMK A01 T01150110  RH  097%=      5-min Rain = 0
KCH1 100353Z 16001KT 12/11 A3014 RMK A01 T01150110  RH  097%=      5-min Rain = 0
KCH1 100354Z 16001KT 12/11 A3014 RMK A01 T01150111  RH  098%=      5-min Rain = 0
KCH1 100355Z 16001KT 12/11 A3014 RMK A01 T01160113  RH  098%=      5-min Rain = 0
KCH1 100356Z 13001KT 11/11 A3014 RMK A01 T01140110  RH  097%=      5-min Rain = 0
KCH1 100357Z 13001KT 11/11 A3014 RMK A01 T01120105  RH  096%=      5-min Rain = 0
KCH1 100358Z 11001KT 11/10 A3014 RMK A01 T01090102  RH  095%=      5-min Rain = 0
KCH1 100359Z 09001KT 11/10 A3014 RMK A01 T01050095  RH  093%=      5-min Rain = 0
KCH1 100400Z 07001KT 10/10 A3014 RMK A01 T01030095  RH  095%=      5-min Rain = 0
KCH1 100401Z 07001KT 10/10 A3014 RMK A01 T01040099  RH  097%=      5-min Rain = 0
KCH1 100402Z 07001KT 11/10 A3014 RMK A01 T01050100  RH  097%=      5-min Rain = 0
KCH1 100403Z 08001KT 11/10 A3014 RMK A01 T01050101  RH  097%=      5-min Rain = 0
KCH1 100404Z 08001KT 11/10 A3014 RMK A01 T01050102  RH  098%=      5-min Rain = 0
KCH1 100405Z 09001KT 11/10 A3014 RMK A01 T01050102  RH  098%=      5-min Rain = 0
KCH1 100406Z 09000KT 11/10 A3014 RMK A01 T01050102  RH  098%=      5-min Rain = 0
KCH1 100407Z 00000KT 10/10 A3014 RMK A01 T01040100  RH  097%=      5-min Rain = 0
KCH1 100408Z 06000KT 10/10 A3014 RMK A01 T01040100  RH  098%=      5-min Rain = 0
KCH1 100409Z 00000KT 11/11 A3014 RMK A01 T01060105  RH  099%=      5-min Rain = 0
KCH1 100410Z 00000KT 11/11 A3014 RMK A01 T01080107  RH  099%=      5-min Rain = 0
KCH1 100411Z 00000KT 11/11 A3014 RMK A01 T01090108  RH  099%=      5-min Rain = 0
KCH1 100412Z 00000KT 11/11 A3014 RMK A01 T01100109  RH  099%=      5-min Rain = 0
KCH1 100413Z 00000KT 11/11 A3014 RMK A01 T01110110  RH  099%=      5-min Rain = 0
KCH1 100414Z 11000KT 11/11 A3014 RMK A01 T01110110  RH  099%=      5-min Rain = 0
KCH1 100415Z 11000KT 11/11 A3014 RMK A01 T01110110  RH  099%=      5-min Rain = 0
KCH1 100416Z 00000KT 11/11 A3014 RMK A01 T01120111  RH  099%=      5-min Rain = 0
KCH1 100417Z 00000KT 11/11 A3014 RMK A01 T01120110  RH  099%=      5-min Rain = 0
KCH1 100418Z 00000KT 11/11 A3014 RMK A01 T01120110  RH  099%=      5-min Rain = 0
KCH1 100419Z 00000KT 11/11 A3014 RMK A01 T01120111  RH  099%=      5-min Rain = 0
KCH1 100420Z 00000KT 11/11 A3014 RMK A01 T01120110  RH  099%=      5-min Rain = 0
KCH1 100421Z 00000KT 11/11 A3014 RMK A01 T01110109  RH  099%=      5-min Rain = 0
KCH1 100422Z 00000KT 11/11 A3014 RMK A01 T01110109  RH  099%=      5-min Rain = 0
KCH1 100423Z 00000KT 11/11 A3014 RMK A01 T01110109  RH  099%=      5-min Rain = 0
KCH1 100424Z 13000KT 11/11 A3014 RMK A01 T01110109  RH  099%=      5-min Rain = 0
KCH1 100425Z 13000KT 11/11 A3014 RMK A01 T01110109  RH  099%=      5-min Rain = 0
KCH1 100426Z 13000KT 11/11 A3014 RMK A01 T01090105  RH  098%=      5-min Rain = 0
KCH1 100427Z 00000KT 11/10 A3014 RMK A01 T01070103  RH  097%=      5-min Rain = 0
KCH1 100428Z 00000KT 11/10 A3014 RMK A01 T01060103  RH  098%=      5-min Rain = 0
KCH1 100429Z 00000KT 11/10 A3014 RMK A01 T01060102  RH  098%=      5-min Rain = 0
KCH1 100430Z 00000KT 11/10 A3014 RMK A01 T01060102  RH  098%=      5-min Rain = 0
KCH1 100431Z 00000KT 11/10 A3014 RMK A01 T01060103  RH  098%=      5-min Rain = 0
KCH1 100432Z 19001KT 11/11 A3014 RMK A01 T01070105  RH  099%=      5-min Rain = 0
KCH1 100433Z 19000KT 11/11 A3014 RMK A01 T01080107  RH  099%=      5-min Rain = 0
KCH1 100434Z 00000KT 11/11 A3014 RMK A01 T01090108  RH  099%=      5-min Rain = 0
KCH1 100435Z 19000KT 11/11 A3014 RMK A01 T01100109  RH  099%=      5-min Rain = 0
KCH1 100436Z 19000KT 11/11 A3014 RMK A01 T01100109  RH  099%=      5-min Rain = 0
KCH1 100437Z 00000KT 11/11 A3014 RMK A01 T01090108  RH  099%=      5-min Rain = 0
KCH1 100438Z 00000KT 11/11 A3014 RMK A01 T01080106  RH  099%=      5-min Rain = 0
KCH1 100439Z 19000KT 11/11 A3014 RMK A01 T01080106  RH  099%=      5-min Rain = 0
KCH1 100440Z 19000KT 11/11 A3014 RMK A01 T01080107  RH  099%=      5-min Rain = 0
KCH1 100441Z 00000KT 11/11 A3014 RMK A01 T01080107  RH  099%=      5-min Rain = 0
KCH1 100442Z 00000KT 11/11 A3014 RMK A01 T01080107  RH  099%=      5-min Rain = 0
KCH1 100443Z 19001KT 11/11 A3014 RMK A01 T01080107  RH  099%=      5-min Rain = 0
KCH1 100444Z 19001KT 11/11 A3014 RMK A01 T01090109  RH  100%=      5-min Rain = 0
KCH1 100445Z 19001KT 11/11 A3014 RMK A01 T01100110  RH  100%=      5-min Rain = 0
KCH1 100446Z 19001KT 11/11 A3014 RMK A01 T01100110  RH  100%=      5-min Rain = 0
KCH1 100447Z 19001KT 11/11 A3014 RMK A01 T01110110  RH  100%=      5-min Rain = 0
KCH1 100448Z 19001KT 11/11 A3014 RMK A01 T01090109  RH  099%=      5-min Rain = 0
KCH1 100449Z 20001KT 11/11 A3014 RMK A01 T01090108  RH  099%=      5-min Rain = 0
KCH1 100450Z 20002KT 11/11 A3014 RMK A01 T01080108  RH  099%=      5-min Rain = 0
KCH1 100451Z 20002KT 11/11 A3014 RMK A01 T01080107  RH  099%=      5-min Rain = 0
KCH1 100452Z 19002KT 11/11 A3014 RMK A01 T01090108  RH  100%=      5-min Rain = 0
KCH1 100453Z 19003KT 11/11 A3014 RMK A01 T01100109  RH  100%=      5-min Rain = 0
KCH1 100454Z 19003KT 11/11 A3014 RMK A01 T01100110  RH  100%=      5-min Rain = 0
KCH1 100455Z 19003KT 11/11 A3013 RMK A01 T01120112  RH  100%=      5-min Rain = 0
KCH1 100456Z 19003KT 11/11 A3013 RMK A01 T01130113  RH  100%=      5-min Rain = 0
KCH1 100457Z 19003KT 11/11 A3013 RMK A01 T01140114  RH  100%=      5-min Rain = 0
KCH1 100458Z 19003KT 12/12 A3013 RMK A01 T01150115  RH  100%=      5-min Rain = 0
KCH1 100459Z 20003KT 12/12 A3013 RMK A01 T01150115  RH  100%=      5-min Rain = 0
KCH1 100500Z 20003KT 12/12 A3013 RMK A01 T01150115  RH  100%=      5-min Rain = 0
KCH1 100501Z 19003KT 11/11 A3013 RMK A01 T01140114  RH  100%=      5-min Rain = 0
KCH1 100502Z 19003KT 11/11 A3013 RMK A01 T01130113  RH  100%=      5-min Rain = 0
KCH1 100503Z 19003KT 11/11 A3013 RMK A01 T01110110  RH  099%=      5-min Rain = 0
KCH1 100504Z 19003KT 11/11 A3013 RMK A01 T01090107  RH  099%=      5-min Rain = 0
KCH1 100505Z 19004KT 11/11 A3013 RMK A01 T01070105  RH  099%=      5-min Rain = 0
KCH1 100506Z 19003KT 11/10 A3013 RMK A01 T01050103  RH  098%=      5-min Rain = 0
KCH1 100507Z 19004KT 10/10 A3013 RMK A01 T01030100  RH  098%=      5-min Rain = 0
KCH1 100508Z 19004KT 10/10 A3013 RMK A01 T01000097  RH  097%=      5-min Rain = 0
KCH1 100509Z 19004KT 10/10 A3013 RMK A01 T00990095  RH  097%=      5-min Rain = 0
KCH1 100510Z 19004KT 10/10 A3013 RMK A01 T00990096  RH  098%=      5-min Rain = 0
KCH1 100511Z 18004KT 10/10 A3013 RMK A01 T01010099  RH  099%=      5-min Rain = 0
KCH1 100512Z 18003KT 10/10 A3013 RMK A01 T01020100  RH  099%=      5-min Rain = 0
KCH1 100513Z 18004KT 10/10 A3013 RMK A01 T01010099  RH  099%=      5-min Rain = 0
KCH1 100514Z 18004KT 10/10 A3013 RMK A01 T01000097  RH  099%=      5-min Rain = 0
KCH1 100515Z 17004KT 10/10 A3013 RMK A01 T00990096  RH  098%=      5-min Rain = 0
KCH1 100516Z 18004KT 10/09 A3013 RMK A01 T00960093  RH  098%=      5-min Rain = 0
KCH1 100517Z 18004KT 09/09 A3013 RMK A01 T00930089  RH  097%=      5-min Rain = 0
KCH1 100518Z 18004KT 09/09 A3013 RMK A01 T00930089  RH  098%=      5-min Rain = 0
KCH1 100519Z 18004KT 09/09 A3013 RMK A01 T00930089  RH  098%=      5-min Rain = 0
KCH1 100520Z 18003KT 09/09 A3013 RMK A01 T00920089  RH  098%=      5-min Rain = 0
KCH1 100521Z 17003KT 09/09 A3013 RMK A01 T00900085  RH  097%=      5-min Rain = 0
KCH1 100522Z 16002KT 09/08 A3013 RMK A01 T00880083  RH  097%=      5-min Rain = 0
KCH1 100523Z 15002KT 09/08 A3013 RMK A01 T00860080  RH  096%=      5-min Rain = 0
KCH1 100524Z 14002KT 08/08 A3013 RMK A01 T00830076  RH  096%=      5-min Rain = 0
KCH1 100525Z 13002KT 08/07 A3013 RMK A01 T00800074  RH  096%=      5-min Rain = 0
KCH1 100526Z 12002KT 08/07 A3013 RMK A01 T00790074  RH  096%=      5-min Rain = 0
KCH1 100527Z 08002KT 08/08 A3013 RMK A01 T00790075  RH  097%=      5-min Rain = 0
KCH1 100528Z 07002KT 08/07 A3013 RMK A01 T00790074  RH  097%=      5-min Rain = 0
KCH1 100529Z 06002KT 08/08 A3013 RMK A01 T00790076  RH  098%=      5-min Rain = 0
KCH1 100530Z 05002KT 08/08 A3013 RMK A01 T00800078  RH  099%=      5-min Rain = 0
KCH1 100531Z 05002KT 08/08 A3013 RMK A01 T00820080  RH  099%=      5-min Rain = 0
KCH1 100532Z 05002KT 08/08 A3013 RMK A01 T00820080  RH  099%=      5-min Rain = 0
KCH1 100533Z 06002KT 08/08 A3013 RMK A01 T00830081  RH  099%=      5-min Rain = 0
KCH1 100534Z 06002KT 08/08 A3013 RMK A01 T00830082  RH  099%=      5-min Rain = 0
KCH1 100535Z 08001KT 08/08 A3013 RMK A01 T00840083  RH  099%=      5-min Rain = 0
KCH1 100536Z 09000KT 09/08 A3013 RMK A01 T00850084  RH  100%=      5-min Rain = 0
KCH1 100537Z 11000KT 09/09 A3013 RMK A01 T00870086  RH  100%=      5-min Rain = 0
KCH1 100538Z 15001KT 09/09 A3013 RMK A01 T00880088  RH  100%=      5-min Rain = 0
KCH1 100539Z 16001KT 09/09 A3013 RMK A01 T00900090  RH  100%=      5-min Rain = 0
KCH1 100540Z 15001KT 09/09 A3013 RMK A01 T00910091  RH  100%=      5-min Rain = 0
KCH1 100541Z 15001KT 09/09 A3013 RMK A01 T00920092  RH  100%=      5-min Rain = 0
KCH1 100542Z 16002KT 09/09 A3013 RMK A01 T00930093  RH  100%=      5-min Rain = 0
KCH1 100543Z 16002KT 09/09 A3013 RMK A01 T00940094  RH  100%=      5-min Rain = 0
KCH1 100544Z 16002KT 09/09 A3013 RMK A01 T00940094  RH  100%=      5-min Rain = 0
KCH1 100545Z 16002KT 09/09 A3013 RMK A01 T00930093  RH  100%=      5-min Rain = 0
KCH1 100546Z 16002KT 09/09 A3013 RMK A01 T00920093  RH  100%=      5-min Rain = 0
KCH1 100547Z 15002KT 09/09 A3013 RMK A01 T00940094  RH  100%=      5-min Rain = 0
KCH1 100548Z 15003KT 10/10 A3013 RMK A01 T00950095  RH  100%=      5-min Rain = 0
KCH1 100549Z 15003KT 09/09 A3013 RMK A01 T00940094  RH  100%=      5-min Rain = 0
KCH1 100550Z 15003KT 09/09 A3013 RMK A01 T00940094  RH  100%=      5-min Rain = 0
KCH1 100551Z 15003KT 09/09 A3013 RMK A01 T00940094  RH  100%=      5-min Rain = 0
KCH1 100552Z 15003KT 09/09 A3013 RMK A01 T00930093  RH  100%=      5-min Rain = 0
KCH1 100553Z 14003KT 09/09 A3013 RMK A01 T00910091  RH  100%=      5-min Rain = 0
KCH1 100554Z 14003KT 09/09 A3013 RMK A01 T00890089  RH  100%=      5-min Rain = 0
KCH1 100555Z 14003KT 09/09 A3013 RMK A01 T00870086  RH  099%=      5-min Rain = 0
KCH1 100556Z 14002KT 08/08 A3013 RMK A01 T00840082  RH  099%=      5-min Rain = 0
KCH1 100557Z 14002KT 08/08 A3013 RMK A01 T00820080  RH  099%=      5-min Rain = 0
KCH1 100558Z 16003KT 08/08 A3013 RMK A01 T00810079  RH  099%=      5-min Rain = 0
KCH1 100559Z 15003KT 08/08 A3013 RMK A01 T00810079  RH  099%=      5-min Rain = 0

Page generated in 0.1305 seconds.